<?xml version="1.0" encoding="UTF-8" standalone="yes"?>
<gpx
 xmlns="http://www.topografix.com/GPX/1/1"
 creator="OziExplorer Version 3956f - http://www.oziexplorer.com"
 version="1.1"
 xmlns:xsi="http://www.w3.org/2001/XMLSchema-instance"
 xsi:schemaLocation="http://www.topografix.com/GPX/1/1 http://www.topografix.com/GPX/1/1/gpx.xsd">
<metadata>
 <time>2022-12-08T09:55:25Z</time>
 <bounds minlat="31.698010" minlon="35.299070" maxlat="31.801020" maxlon="35.453540"/>
</metadata>
<wpt lat="31.7474362" lon="35.3002409">
 <time>2022-12-08T11:54:33.794Z</time>
 <name>1-Start</name>
 <sym>Flag, Red</sym>
</wpt>
<wpt lat="31.7053236" lon="35.3332535">
 <time>2022-12-08T11:54:33.818Z</time>
 <name>2-Tatspit1</name>
 <sym>Flag, Red</sym>
</wpt>
<wpt lat="31.7049224" lon="35.3311184">
 <time>2022-12-08T11:54:33.819Z</time>
 <name>3-MarSaba</name>
 <sym>Flag, Red</sym>
</wpt>
<wpt lat="31.7045869" lon="35.4451552">
 <time>2022-12-08T11:54:33.819Z</time>
 <name>4-Tatspit3</name>
 <sym>Flag, Red</sym>
</wpt>
<wpt lat="31.7289469" lon="35.4492322">
 <time>2022-12-08T11:54:33.821Z</time>
 <name>5-Tatspit4</name>
 <sym>Flag, Red</sym>
</wpt>
<wpt lat="31.7709618" lon="35.4520432">
 <time>2022-12-08T11:54:33.822Z</time>
 <name>6-Tatspit5</name>
 <sym>Flag, Red</sym>
</wpt>
<wpt lat="31.7289469" lon="35.4492322">
 <time>2022-12-08T11:54:33.822Z</time>
 <name>6-Tatspit4</name>
 <sym>Flag, Red</sym>
</wpt>
<wpt lat="31.8010200" lon="35.4535400">
 <time>2022-12-08T11:54:33.823Z</time>
 <name>Finish</name>
 <sym>Flag, Red</sym>
</wpt>
<trk>
 <name>MarSaba_New2_40km.600m</name>
 <desc>MarSaba_New2_40km.600m</desc>
<trkseg>
<trkpt lat="31.7474200" lon="35.3002600">
<ele>516.419983</ele>
<time>2022-12-08T11:54:33.823Z</time>
</trkpt>
<trkpt lat="31.7472000" lon="35.3012500">
<ele>524.919983</ele>
<time>2022-12-08T11:54:33.823Z</time>
</trkpt>
<trkpt lat="31.7469500" lon="35.3010800">
<ele>523.910034</ele>
<time>2022-12-08T11:54:33.823Z</time>
</trkpt>
<trkpt lat="31.7463200" lon="35.3003800">
<ele>514.410034</ele>
<time>2022-12-08T11:54:33.823Z</time>
</trkpt>
<trkpt lat="31.7451800" lon="35.2994400">
<ele>505.729980</ele>
<time>2022-12-08T11:54:33.823Z</time>
</trkpt>
<trkpt lat="31.7450100" lon="35.2991000">
<ele>494.209991</ele>
<time>2022-12-08T11:54:33.823Z</time>
</trkpt>
<trkpt lat="31.7449200" lon="35.2990700">
<ele>491.949982</ele>
<time>2022-12-08T11:54:33.823Z</time>
</trkpt>
<trkpt lat="31.7447400" lon="35.2995600">
<ele>490.250000</ele>
<time>2022-12-08T11:54:33.823Z</time>
</trkpt>
<trkpt lat="31.7444600" lon="35.2998800">
<ele>487.700012</ele>
<time>2022-12-08T11:54:33.823Z</time>
</trkpt>
<trkpt lat="31.7443200" lon="35.3001400">
<ele>489.779999</ele>
<time>2022-12-08T11:54:33.823Z</time>
</trkpt>
<trkpt lat="31.7442900" lon="35.3007200">
<ele>495.329987</ele>
<time>2022-12-08T11:54:33.823Z</time>
</trkpt>
<trkpt lat="31.7441900" lon="35.3011400">
<ele>494.399994</ele>
<time>2022-12-08T11:54:33.823Z</time>
</trkpt>
<trkpt lat="31.7441500" lon="35.3015800">
<ele>498.570007</ele>
<time>2022-12-08T11:54:33.823Z</time>
</trkpt>
<trkpt lat="31.7437100" lon="35.3023400">
<ele>493.410004</ele>
<time>2022-12-08T11:54:33.823Z</time>
</trkpt>
<trkpt lat="31.7427500" lon="35.3032500">
<ele>492.700012</ele>
<time>2022-12-08T11:54:33.823Z</time>
</trkpt>
<trkpt lat="31.7428600" lon="35.3044000">
<ele>497.949982</ele>
<time>2022-12-08T11:54:33.823Z</time>
</trkpt>
<trkpt lat="31.7426200" lon="35.3053700">
<ele>505.660004</ele>
<time>2022-12-08T11:54:33.823Z</time>
</trkpt>
<trkpt lat="31.7426300" lon="35.3062900">
<ele>507.940002</ele>
<time>2022-12-08T11:54:33.823Z</time>
</trkpt>
<trkpt lat="31.7425300" lon="35.3067100">
<ele>505.450012</ele>
<time>2022-12-08T11:54:33.823Z</time>
</trkpt>
<trkpt lat="31.7421600" lon="35.3072000">
<ele>501.100006</ele>
<time>2022-12-08T11:54:33.823Z</time>
</trkpt>
<trkpt lat="31.7419900" lon="35.3078400">
<ele>490.430023</ele>
<time>2022-12-08T11:54:33.823Z</time>
</trkpt>
<trkpt lat="31.7420000" lon="35.3082000">
<ele>485.420013</ele>
<time>2022-12-08T11:54:33.823Z</time>
</trkpt>
<trkpt lat="31.7422500" lon="35.3089400">
<ele>480.800018</ele>
<time>2022-12-08T11:54:33.823Z</time>
</trkpt>
<trkpt lat="31.7423800" lon="35.3097300">
<ele>478.000000</ele>
<time>2022-12-08T11:54:33.823Z</time>
</trkpt>
<trkpt lat="31.7421100" lon="35.3108800">
<ele>470.329987</ele>
<time>2022-12-08T11:54:33.823Z</time>
</trkpt>
<trkpt lat="31.7421700" lon="35.3113800">
<ele>467.329987</ele>
<time>2022-12-08T11:54:33.823Z</time>
</trkpt>
<trkpt lat="31.7424900" lon="35.3119100">
<ele>455.059998</ele>
<time>2022-12-08T11:54:33.823Z</time>
</trkpt>
<trkpt lat="31.7424300" lon="35.3128400">
<ele>447.529999</ele>
<time>2022-12-08T11:54:33.823Z</time>
</trkpt>
<trkpt lat="31.7426700" lon="35.3141000">
<ele>439.969971</ele>
<time>2022-12-08T11:54:33.823Z</time>
</trkpt>
<trkpt lat="31.7425600" lon="35.3145000">
<ele>440.600006</ele>
<time>2022-12-08T11:54:33.823Z</time>
</trkpt>
<trkpt lat="31.7426900" lon="35.3152000">
<ele>438.609985</ele>
<time>2022-12-08T11:54:33.823Z</time>
</trkpt>
<trkpt lat="31.7417500" lon="35.3171300">
<ele>434.199982</ele>
<time>2022-12-08T11:54:33.823Z</time>
</trkpt>
<trkpt lat="31.7417300" lon="35.3175100">
<ele>435.260010</ele>
<time>2022-12-08T11:54:33.823Z</time>
</trkpt>
<trkpt lat="31.7413900" lon="35.3183300">
<ele>431.000000</ele>
<time>2022-12-08T11:54:33.823Z</time>
</trkpt>
<trkpt lat="31.7409200" lon="35.3204900">
<ele>424.920013</ele>
<time>2022-12-08T11:54:33.823Z</time>
</trkpt>
<trkpt lat="31.7406600" lon="35.3209100">
<ele>421.680023</ele>
<time>2022-12-08T11:54:33.823Z</time>
</trkpt>
<trkpt lat="31.7405600" lon="35.3214200">
<ele>420.879974</ele>
<time>2022-12-08T11:54:33.823Z</time>
</trkpt>
<trkpt lat="31.7401500" lon="35.3225700">
<ele>415.059998</ele>
<time>2022-12-08T11:54:33.823Z</time>
</trkpt>
<trkpt lat="31.7399800" lon="35.3232300">
<ele>404.109985</ele>
<time>2022-12-08T11:54:33.823Z</time>
</trkpt>
<trkpt lat="31.7399700" lon="35.3234600">
<ele>404.090027</ele>
<time>2022-12-08T11:54:33.823Z</time>
</trkpt>
<trkpt lat="31.7397000" lon="35.3241000">
<ele>404.720001</ele>
<time>2022-12-08T11:54:33.823Z</time>
</trkpt>
<trkpt lat="31.7396100" lon="35.3245700">
<ele>400.600006</ele>
<time>2022-12-08T11:54:33.823Z</time>
</trkpt>
<trkpt lat="31.7391000" lon="35.3258200">
<ele>392.050018</ele>
<time>2022-12-08T11:54:33.823Z</time>
</trkpt>
<trkpt lat="31.7390300" lon="35.3262300">
<ele>388.519989</ele>
<time>2022-12-08T11:54:33.823Z</time>
</trkpt>
<trkpt lat="31.7387600" lon="35.3268700">
<ele>385.460022</ele>
<time>2022-12-08T11:54:33.823Z</time>
</trkpt>
<trkpt lat="31.7383400" lon="35.3275700">
<ele>393.160004</ele>
<time>2022-12-08T11:54:33.823Z</time>
</trkpt>
<trkpt lat="31.7382300" lon="35.3276700">
<ele>393.029999</ele>
<time>2022-12-08T11:54:33.823Z</time>
</trkpt>
<trkpt lat="31.7381400" lon="35.3276500">
<ele>391.110016</ele>
<time>2022-12-08T11:54:33.823Z</time>
</trkpt>
<trkpt lat="31.7381900" lon="35.3276100">
<ele>391.609985</ele>
<time>2022-12-08T11:54:33.823Z</time>
</trkpt>
<trkpt lat="31.7381000" lon="35.3276700">
<ele>390.480011</ele>
<time>2022-12-08T11:54:33.823Z</time>
</trkpt>
<trkpt lat="31.7377800" lon="35.3280100">
<ele>384.230011</ele>
<time>2022-12-08T11:54:33.823Z</time>
</trkpt>
<trkpt lat="31.7376900" lon="35.3279800">
<ele>383.269989</ele>
<time>2022-12-08T11:54:33.823Z</time>
</trkpt>
<trkpt lat="31.7376100" lon="35.3277900">
<ele>384.270020</ele>
<time>2022-12-08T11:54:33.823Z</time>
</trkpt>
<trkpt lat="31.7376100" lon="35.3274300">
<ele>384.700012</ele>
<time>2022-12-08T11:54:33.823Z</time>
</trkpt>
<trkpt lat="31.7378500" lon="35.3269300">
<ele>385.389984</ele>
<time>2022-12-08T11:54:33.823Z</time>
</trkpt>
<trkpt lat="31.7378500" lon="35.3267300">
<ele>383.570007</ele>
<time>2022-12-08T11:54:33.823Z</time>
</trkpt>
<trkpt lat="31.7374400" lon="35.3262300">
<ele>374.290009</ele>
<time>2022-12-08T11:54:33.823Z</time>
</trkpt>
<trkpt lat="31.7373700" lon="35.3260300">
<ele>373.260010</ele>
<time>2022-12-08T11:54:33.823Z</time>
</trkpt>
<trkpt lat="31.7374100" lon="35.3255700">
<ele>371.489990</ele>
<time>2022-12-08T11:54:33.823Z</time>
</trkpt>
<trkpt lat="31.7377700" lon="35.3250700">
<ele>370.319977</ele>
<time>2022-12-08T11:54:33.823Z</time>
</trkpt>
<trkpt lat="31.7377200" lon="35.3249100">
<ele>365.220001</ele>
<time>2022-12-08T11:54:33.823Z</time>
</trkpt>
<trkpt lat="31.7375400" lon="35.3247700">
<ele>359.220001</ele>
<time>2022-12-08T11:54:33.823Z</time>
</trkpt>
<trkpt lat="31.7373700" lon="35.3247600">
<ele>356.419983</ele>
<time>2022-12-08T11:54:33.823Z</time>
</trkpt>
<trkpt lat="31.7370300" lon="35.3248800">
<ele>353.509979</ele>
<time>2022-12-08T11:54:33.823Z</time>
</trkpt>
<trkpt lat="31.7365000" lon="35.3255700">
<ele>352.309998</ele>
<time>2022-12-08T11:54:33.823Z</time>
</trkpt>
<trkpt lat="31.7361500" lon="35.3255800">
<ele>348.029999</ele>
<time>2022-12-08T11:54:33.823Z</time>
</trkpt>
<trkpt lat="31.7359900" lon="35.3261000">
<ele>343.890015</ele>
<time>2022-12-08T11:54:33.823Z</time>
</trkpt>
<trkpt lat="31.7356100" lon="35.3264100">
<ele>347.619995</ele>
<time>2022-12-08T11:54:33.823Z</time>
</trkpt>
<trkpt lat="31.7355100" lon="35.3264400">
<ele>348.410004</ele>
<time>2022-12-08T11:54:33.823Z</time>
</trkpt>
<trkpt lat="31.7353400" lon="35.3264100">
<ele>349.429993</ele>
<time>2022-12-08T11:54:33.823Z</time>
</trkpt>
<trkpt lat="31.7346600" lon="35.3261100">
<ele>337.459991</ele>
<time>2022-12-08T11:54:33.823Z</time>
</trkpt>
<trkpt lat="31.7341800" lon="35.3257600">
<ele>342.700012</ele>
<time>2022-12-08T11:54:33.823Z</time>
</trkpt>
<trkpt lat="31.7333500" lon="35.3255200">
<ele>346.440002</ele>
<time>2022-12-08T11:54:33.823Z</time>
</trkpt>
<trkpt lat="31.7329300" lon="35.3251300">
<ele>340.799988</ele>
<time>2022-12-08T11:54:33.823Z</time>
</trkpt>
<trkpt lat="31.7327100" lon="35.3246400">
<ele>329.909973</ele>
<time>2022-12-08T11:54:33.823Z</time>
</trkpt>
<trkpt lat="31.7324400" lon="35.3243700">
<ele>331.109985</ele>
<time>2022-12-08T11:54:33.823Z</time>
</trkpt>
<trkpt lat="31.7322000" lon="35.3242700">
<ele>331.350006</ele>
<time>2022-12-08T11:54:33.823Z</time>
</trkpt>
<trkpt lat="31.7317300" lon="35.3243200">
<ele>324.210022</ele>
<time>2022-12-08T11:54:33.823Z</time>
</trkpt>
<trkpt lat="31.7313500" lon="35.3248800">
<ele>324.760010</ele>
<time>2022-12-08T11:54:33.823Z</time>
</trkpt>
<trkpt lat="31.7310600" lon="35.3250400">
<ele>326.630005</ele>
<time>2022-12-08T11:54:33.823Z</time>
</trkpt>
<trkpt lat="31.7308500" lon="35.3249900">
<ele>323.130005</ele>
<time>2022-12-08T11:54:33.823Z</time>
</trkpt>
<trkpt lat="31.7304900" lon="35.3245600">
<ele>326.999969</ele>
<time>2022-12-08T11:54:33.823Z</time>
</trkpt>
<trkpt lat="31.7302500" lon="35.3244300">
<ele>321.850006</ele>
<time>2022-12-08T11:54:33.823Z</time>
</trkpt>
<trkpt lat="31.7301000" lon="35.3245600">
<ele>317.899994</ele>
<time>2022-12-08T11:54:33.823Z</time>
</trkpt>
<trkpt lat="31.7301000" lon="35.3248500">
<ele>320.109985</ele>
<time>2022-12-08T11:54:33.823Z</time>
</trkpt>
<trkpt lat="31.7299800" lon="35.3249800">
<ele>320.630005</ele>
<time>2022-12-08T11:54:33.823Z</time>
</trkpt>
<trkpt lat="31.7298600" lon="35.3250100">
<ele>320.779999</ele>
<time>2022-12-08T11:54:33.823Z</time>
</trkpt>
<trkpt lat="31.7294000" lon="35.3246400">
<ele>312.020020</ele>
<time>2022-12-08T11:54:33.823Z</time>
</trkpt>
<trkpt lat="31.7291400" lon="35.3243100">
<ele>307.229980</ele>
<time>2022-12-08T11:54:33.823Z</time>
</trkpt>
<trkpt lat="31.7288900" lon="35.3242700">
<ele>304.380005</ele>
<time>2022-12-08T11:54:33.823Z</time>
</trkpt>
<trkpt lat="31.7287300" lon="35.3243500">
<ele>301.799988</ele>
<time>2022-12-08T11:54:33.823Z</time>
</trkpt>
<trkpt lat="31.7277700" lon="35.3252900">
<ele>297.540009</ele>
<time>2022-12-08T11:54:33.823Z</time>
</trkpt>
<trkpt lat="31.7272800" lon="35.3251400">
<ele>295.799988</ele>
<time>2022-12-08T11:54:33.823Z</time>
</trkpt>
<trkpt lat="31.7271000" lon="35.3249900">
<ele>293.670013</ele>
<time>2022-12-08T11:54:33.823Z</time>
</trkpt>
<trkpt lat="31.7270400" lon="35.3248300">
<ele>290.449982</ele>
<time>2022-12-08T11:54:33.823Z</time>
</trkpt>
<trkpt lat="31.7270500" lon="35.3243600">
<ele>286.500000</ele>
<time>2022-12-08T11:54:33.823Z</time>
</trkpt>
<trkpt lat="31.7269800" lon="35.3241700">
<ele>284.660004</ele>
<time>2022-12-08T11:54:33.823Z</time>
</trkpt>
<trkpt lat="31.7268400" lon="35.3240100">
<ele>285.670013</ele>
<time>2022-12-08T11:54:33.823Z</time>
</trkpt>
<trkpt lat="31.7266300" lon="35.3239000">
<ele>285.880005</ele>
<time>2022-12-08T11:54:33.823Z</time>
</trkpt>
<trkpt lat="31.7262500" lon="35.3240100">
<ele>283.690002</ele>
<time>2022-12-08T11:54:33.823Z</time>
</trkpt>
<trkpt lat="31.7260300" lon="35.3239400">
<ele>283.500000</ele>
<time>2022-12-08T11:54:33.823Z</time>
</trkpt>
<trkpt lat="31.7256600" lon="35.3235000">
<ele>282.429993</ele>
<time>2022-12-08T11:54:33.823Z</time>
</trkpt>
<trkpt lat="31.7250200" lon="35.3233300">
<ele>281.759979</ele>
<time>2022-12-08T11:54:33.823Z</time>
</trkpt>
<trkpt lat="31.7243400" lon="35.3226300">
<ele>270.160004</ele>
<time>2022-12-08T11:54:33.823Z</time>
</trkpt>
<trkpt lat="31.7240700" lon="35.3225100">
<ele>268.950012</ele>
<time>2022-12-08T11:54:33.823Z</time>
</trkpt>
<trkpt lat="31.7239200" lon="35.3226000">
<ele>267.619995</ele>
<time>2022-12-08T11:54:33.823Z</time>
</trkpt>
<trkpt lat="31.7235900" lon="35.3231800">
<ele>268.679993</ele>
<time>2022-12-08T11:54:33.823Z</time>
</trkpt>
<trkpt lat="31.7233600" lon="35.3234500">
<ele>271.390015</ele>
<time>2022-12-08T11:54:33.823Z</time>
</trkpt>
<trkpt lat="31.7232700" lon="35.3236800">
<ele>271.510010</ele>
<time>2022-12-08T11:54:33.823Z</time>
</trkpt>
<trkpt lat="31.7228800" lon="35.3242000">
<ele>268.760010</ele>
<time>2022-12-08T11:54:33.823Z</time>
</trkpt>
<trkpt lat="31.7226900" lon="35.3248600">
<ele>268.639984</ele>
<time>2022-12-08T11:54:33.823Z</time>
</trkpt>
<trkpt lat="31.7222900" lon="35.3252500">
<ele>266.959991</ele>
<time>2022-12-08T11:54:33.823Z</time>
</trkpt>
<trkpt lat="31.7221100" lon="35.3256700">
<ele>266.970001</ele>
<time>2022-12-08T11:54:33.823Z</time>
</trkpt>
<trkpt lat="31.7219600" lon="35.3258600">
<ele>266.450012</ele>
<time>2022-12-08T11:54:33.823Z</time>
</trkpt>
<trkpt lat="31.7217200" lon="35.3258900">
<ele>267.899994</ele>
<time>2022-12-08T11:54:33.823Z</time>
</trkpt>
<trkpt lat="31.7214400" lon="35.3257800">
<ele>266.020020</ele>
<time>2022-12-08T11:54:33.823Z</time>
</trkpt>
<trkpt lat="31.7206800" lon="35.3256100">
<ele>267.279999</ele>
<time>2022-12-08T11:54:33.823Z</time>
</trkpt>
<trkpt lat="31.7203100" lon="35.3254200">
<ele>265.799988</ele>
<time>2022-12-08T11:54:33.823Z</time>
</trkpt>
<trkpt lat="31.7195700" lon="35.3254900">
<ele>251.640015</ele>
<time>2022-12-08T11:54:33.823Z</time>
</trkpt>
<trkpt lat="31.7192400" lon="35.3256200">
<ele>245.490005</ele>
<time>2022-12-08T11:54:33.823Z</time>
</trkpt>
<trkpt lat="31.7188800" lon="35.3258700">
<ele>248.639999</ele>
<time>2022-12-08T11:54:33.823Z</time>
</trkpt>
<trkpt lat="31.7187100" lon="35.3261400">
<ele>250.880005</ele>
<time>2022-12-08T11:54:33.823Z</time>
</trkpt>
<trkpt lat="31.7181200" lon="35.3266300">
<ele>249.970001</ele>
<time>2022-12-08T11:54:33.823Z</time>
</trkpt>
<trkpt lat="31.7177400" lon="35.3266800">
<ele>252.669998</ele>
<time>2022-12-08T11:54:33.823Z</time>
</trkpt>
<trkpt lat="31.7174700" lon="35.3264800">
<ele>252.309998</ele>
<time>2022-12-08T11:54:33.823Z</time>
</trkpt>
<trkpt lat="31.7173600" lon="35.3264700">
<ele>253.389999</ele>
<time>2022-12-08T11:54:33.823Z</time>
</trkpt>
<trkpt lat="31.7165800" lon="35.3271300">
<ele>254.199997</ele>
<time>2022-12-08T11:54:33.823Z</time>
</trkpt>
<trkpt lat="31.7163300" lon="35.3271700">
<ele>252.210007</ele>
<time>2022-12-08T11:54:33.823Z</time>
</trkpt>
<trkpt lat="31.7158000" lon="35.3270900">
<ele>245.399994</ele>
<time>2022-12-08T11:54:33.823Z</time>
</trkpt>
<trkpt lat="31.7155600" lon="35.3271400">
<ele>241.080002</ele>
<time>2022-12-08T11:54:33.823Z</time>
</trkpt>
<trkpt lat="31.7154400" lon="35.3272400">
<ele>238.580002</ele>
<time>2022-12-08T11:54:33.823Z</time>
</trkpt>
<trkpt lat="31.7151400" lon="35.3277100">
<ele>235.880005</ele>
<time>2022-12-08T11:54:33.823Z</time>
</trkpt>
<trkpt lat="31.7150500" lon="35.3280100">
<ele>235.509995</ele>
<time>2022-12-08T11:54:33.823Z</time>
</trkpt>
<trkpt lat="31.7150500" lon="35.3283200">
<ele>237.100006</ele>
<time>2022-12-08T11:54:33.823Z</time>
</trkpt>
<trkpt lat="31.7152900" lon="35.3291900">
<ele>241.850006</ele>
<time>2022-12-08T11:54:33.823Z</time>
</trkpt>
<trkpt lat="31.7152700" lon="35.3293200">
<ele>240.949997</ele>
<time>2022-12-08T11:54:33.823Z</time>
</trkpt>
<trkpt lat="31.7152700" lon="35.3292900">
<ele>241.169998</ele>
<time>2022-12-08T11:54:33.823Z</time>
</trkpt>
<trkpt lat="31.7154500" lon="35.3294400">
<ele>242.470001</ele>
<time>2022-12-08T11:54:33.823Z</time>
</trkpt>
<trkpt lat="31.7154400" lon="35.3296800">
<ele>244.529999</ele>
<time>2022-12-08T11:54:33.823Z</time>
</trkpt>
<trkpt lat="31.7151900" lon="35.3298800">
<ele>244.759995</ele>
<time>2022-12-08T11:54:33.823Z</time>
</trkpt>
<trkpt lat="31.7150800" lon="35.3300900">
<ele>246.389999</ele>
<time>2022-12-08T11:54:33.823Z</time>
</trkpt>
<trkpt lat="31.7151200" lon="35.3302000">
<ele>248.979996</ele>
<time>2022-12-08T11:54:33.823Z</time>
</trkpt>
<trkpt lat="31.7152000" lon="35.3302300">
<ele>250.500000</ele>
<time>2022-12-08T11:54:33.823Z</time>
</trkpt>
<trkpt lat="31.7152600" lon="35.3304600">
<ele>250.789993</ele>
<time>2022-12-08T11:54:33.823Z</time>
</trkpt>
<trkpt lat="31.7153800" lon="35.3305900">
<ele>247.250000</ele>
<time>2022-12-08T11:54:33.823Z</time>
</trkpt>
<trkpt lat="31.7153600" lon="35.3306600">
<ele>247.440002</ele>
<time>2022-12-08T11:54:33.823Z</time>
</trkpt>
<trkpt lat="31.7150600" lon="35.3305600">
<ele>253.180008</ele>
<time>2022-12-08T11:54:33.823Z</time>
</trkpt>
<trkpt lat="31.7144800" lon="35.3306400">
<ele>257.779999</ele>
<time>2022-12-08T11:54:33.823Z</time>
</trkpt>
<trkpt lat="31.7142200" lon="35.3305400">
<ele>260.419983</ele>
<time>2022-12-08T11:54:33.823Z</time>
</trkpt>
<trkpt lat="31.7139400" lon="35.3308900">
<ele>271.119995</ele>
<time>2022-12-08T11:54:33.823Z</time>
</trkpt>
<trkpt lat="31.7137700" lon="35.3309500">
<ele>274.410004</ele>
<time>2022-12-08T11:54:33.823Z</time>
</trkpt>
<trkpt lat="31.7134800" lon="35.3309100">
<ele>275.459991</ele>
<time>2022-12-08T11:54:33.823Z</time>
</trkpt>
<trkpt lat="31.7133800" lon="35.3309800">
<ele>276.859985</ele>
<time>2022-12-08T11:54:33.823Z</time>
</trkpt>
<trkpt lat="31.7133300" lon="35.3311900">
<ele>280.779999</ele>
<time>2022-12-08T11:54:33.823Z</time>
</trkpt>
<trkpt lat="31.7135300" lon="35.3322900">
<ele>281.899994</ele>
<time>2022-12-08T11:54:33.823Z</time>
</trkpt>
<trkpt lat="31.7135400" lon="35.3324300">
<ele>283.269989</ele>
<time>2022-12-08T11:54:33.823Z</time>
</trkpt>
<trkpt lat="31.7135800" lon="35.3324300">
<ele>282.690002</ele>
<time>2022-12-08T11:54:33.823Z</time>
</trkpt>
<trkpt lat="31.7135800" lon="35.3324900">
<ele>283.339996</ele>
<time>2022-12-08T11:54:33.823Z</time>
</trkpt>
<trkpt lat="31.7136300" lon="35.3327500">
<ele>286.369995</ele>
<time>2022-12-08T11:54:33.823Z</time>
</trkpt>
<trkpt lat="31.7136200" lon="35.3328500">
<ele>286.850006</ele>
<time>2022-12-08T11:54:33.823Z</time>
</trkpt>
<trkpt lat="31.7136300" lon="35.3330700">
<ele>288.899994</ele>
<time>2022-12-08T11:54:33.823Z</time>
</trkpt>
<trkpt lat="31.7136300" lon="35.3333000">
<ele>291.329987</ele>
<time>2022-12-08T11:54:33.823Z</time>
</trkpt>
<trkpt lat="31.7133900" lon="35.3341800">
<ele>303.670013</ele>
<time>2022-12-08T11:54:33.823Z</time>
</trkpt>
<trkpt lat="31.7133000" lon="35.3343700">
<ele>305.360016</ele>
<time>2022-12-08T11:54:33.823Z</time>
</trkpt>
<trkpt lat="31.7131200" lon="35.3346000">
<ele>311.420013</ele>
<time>2022-12-08T11:54:33.823Z</time>
</trkpt>
<trkpt lat="31.7130500" lon="35.3347500">
<ele>314.440002</ele>
<time>2022-12-08T11:54:33.823Z</time>
</trkpt>
<trkpt lat="31.7130100" lon="35.3349600">
<ele>317.470001</ele>
<time>2022-12-08T11:54:33.823Z</time>
</trkpt>
<trkpt lat="31.7130000" lon="35.3350600">
<ele>317.570007</ele>
<time>2022-12-08T11:54:33.823Z</time>
</trkpt>
<trkpt lat="31.7130000" lon="35.3352700">
<ele>316.059998</ele>
<time>2022-12-08T11:54:33.823Z</time>
</trkpt>
<trkpt lat="31.7130200" lon="35.3354100">
<ele>315.410004</ele>
<time>2022-12-08T11:54:33.823Z</time>
</trkpt>
<trkpt lat="31.7130100" lon="35.3354500">
<ele>314.940002</ele>
<time>2022-12-08T11:54:33.823Z</time>
</trkpt>
<trkpt lat="31.7128800" lon="35.3357400">
<ele>311.489990</ele>
<time>2022-12-08T11:54:33.823Z</time>
</trkpt>
<trkpt lat="31.7128300" lon="35.3359100">
<ele>310.419983</ele>
<time>2022-12-08T11:54:33.823Z</time>
</trkpt>
<trkpt lat="31.7127900" lon="35.3359800">
<ele>309.929993</ele>
<time>2022-12-08T11:54:33.823Z</time>
</trkpt>
<trkpt lat="31.7127300" lon="35.3361400">
<ele>310.829987</ele>
<time>2022-12-08T11:54:33.823Z</time>
</trkpt>
<trkpt lat="31.7127000" lon="35.3363400">
<ele>310.720001</ele>
<time>2022-12-08T11:54:33.823Z</time>
</trkpt>
<trkpt lat="31.7127000" lon="35.3363900">
<ele>310.720001</ele>
<time>2022-12-08T11:54:33.823Z</time>
</trkpt>
<trkpt lat="31.7126800" lon="35.3364800">
<ele>310.320007</ele>
<time>2022-12-08T11:54:33.823Z</time>
</trkpt>
<trkpt lat="31.7126100" lon="35.3366600">
<ele>309.419983</ele>
<time>2022-12-08T11:54:33.823Z</time>
</trkpt>
<trkpt lat="31.7124900" lon="35.3367900">
<ele>310.269989</ele>
<time>2022-12-08T11:54:33.823Z</time>
</trkpt>
<trkpt lat="31.7124400" lon="35.3369200">
<ele>310.950012</ele>
<time>2022-12-08T11:54:33.823Z</time>
</trkpt>
<trkpt lat="31.7123300" lon="35.3371000">
<ele>310.450012</ele>
<time>2022-12-08T11:54:33.823Z</time>
</trkpt>
<trkpt lat="31.7122900" lon="35.3371400">
<ele>310.209991</ele>
<time>2022-12-08T11:54:33.823Z</time>
</trkpt>
<trkpt lat="31.7122500" lon="35.3372400">
<ele>310.380005</ele>
<time>2022-12-08T11:54:33.823Z</time>
</trkpt>
<trkpt lat="31.7122500" lon="35.3372400">
<ele>310.380005</ele>
<time>2022-12-08T11:54:33.823Z</time>
</trkpt>
<trkpt lat="31.7122500" lon="35.3372400">
<ele>310.380005</ele>
<time>2022-12-08T11:54:33.823Z</time>
</trkpt>
<trkpt lat="31.7122300" lon="35.3372900">
<ele>310.350006</ele>
<time>2022-12-08T11:54:33.823Z</time>
</trkpt>
<trkpt lat="31.7121100" lon="35.3375000">
<ele>308.980011</ele>
<time>2022-12-08T11:54:33.823Z</time>
</trkpt>
<trkpt lat="31.7120300" lon="35.3375500">
<ele>308.149994</ele>
<time>2022-12-08T11:54:33.823Z</time>
</trkpt>
<trkpt lat="31.7118900" lon="35.3375300">
<ele>306.779999</ele>
<time>2022-12-08T11:54:33.823Z</time>
</trkpt>
<trkpt lat="31.7117600" lon="35.3375200">
<ele>307.519989</ele>
<time>2022-12-08T11:54:33.823Z</time>
</trkpt>
<trkpt lat="31.7115300" lon="35.3374100">
<ele>310.299988</ele>
<time>2022-12-08T11:54:33.823Z</time>
</trkpt>
<trkpt lat="31.7113400" lon="35.3373600">
<ele>311.380005</ele>
<time>2022-12-08T11:54:33.823Z</time>
</trkpt>
<trkpt lat="31.7111800" lon="35.3373700">
<ele>309.339996</ele>
<time>2022-12-08T11:54:33.823Z</time>
</trkpt>
<trkpt lat="31.7110600" lon="35.3373900">
<ele>307.589996</ele>
<time>2022-12-08T11:54:33.823Z</time>
</trkpt>
<trkpt lat="31.7107800" lon="35.3374300">
<ele>304.690002</ele>
<time>2022-12-08T11:54:33.823Z</time>
</trkpt>
<trkpt lat="31.7106900" lon="35.3374400">
<ele>304.739990</ele>
<time>2022-12-08T11:54:33.823Z</time>
</trkpt>
<trkpt lat="31.7105900" lon="35.3374500">
<ele>304.700012</ele>
<time>2022-12-08T11:54:33.823Z</time>
</trkpt>
<trkpt lat="31.7104800" lon="35.3374700">
<ele>304.270020</ele>
<time>2022-12-08T11:54:33.823Z</time>
</trkpt>
<trkpt lat="31.7103800" lon="35.3375100">
<ele>303.769989</ele>
<time>2022-12-08T11:54:33.823Z</time>
</trkpt>
<trkpt lat="31.7101000" lon="35.3377000">
<ele>302.160004</ele>
<time>2022-12-08T11:54:33.823Z</time>
</trkpt>
<trkpt lat="31.7101000" lon="35.3377000">
<ele>302.160004</ele>
<time>2022-12-08T11:54:33.823Z</time>
</trkpt>
<trkpt lat="31.7097100" lon="35.3379600">
<ele>300.559998</ele>
<time>2022-12-08T11:54:33.823Z</time>
</trkpt>
<trkpt lat="31.7093100" lon="35.3377000">
<ele>305.859985</ele>
<time>2022-12-08T11:54:33.823Z</time>
</trkpt>
<trkpt lat="31.7091200" lon="35.3375800">
<ele>306.239990</ele>
<time>2022-12-08T11:54:33.823Z</time>
</trkpt>
<trkpt lat="31.7089400" lon="35.3374100">
<ele>308.339996</ele>
<time>2022-12-08T11:54:33.823Z</time>
</trkpt>
<trkpt lat="31.7086800" lon="35.3370900">
<ele>310.390015</ele>
<time>2022-12-08T11:54:33.823Z</time>
</trkpt>
<trkpt lat="31.7085700" lon="35.3368600">
<ele>309.690002</ele>
<time>2022-12-08T11:54:33.823Z</time>
</trkpt>
<trkpt lat="31.7084400" lon="35.3367300">
<ele>309.690002</ele>
<time>2022-12-08T11:54:33.823Z</time>
</trkpt>
<trkpt lat="31.7083800" lon="35.3366100">
<ele>308.920013</ele>
<time>2022-12-08T11:54:33.823Z</time>
</trkpt>
<trkpt lat="31.7083100" lon="35.3364800">
<ele>307.279999</ele>
<time>2022-12-08T11:54:33.823Z</time>
</trkpt>
<trkpt lat="31.7082300" lon="35.3363800">
<ele>305.880005</ele>
<time>2022-12-08T11:54:33.823Z</time>
</trkpt>
<trkpt lat="31.7080900" lon="35.3362900">
<ele>304.890015</ele>
<time>2022-12-08T11:54:33.823Z</time>
</trkpt>
<trkpt lat="31.7079800" lon="35.3362200">
<ele>302.549988</ele>
<time>2022-12-08T11:54:33.823Z</time>
</trkpt>
<trkpt lat="31.7079300" lon="35.3362000">
<ele>301.429993</ele>
<time>2022-12-08T11:54:33.823Z</time>
</trkpt>
<trkpt lat="31.7078200" lon="35.3359100">
<ele>298.770020</ele>
<time>2022-12-08T11:54:33.823Z</time>
</trkpt>
<trkpt lat="31.7077300" lon="35.3352600">
<ele>294.640015</ele>
<time>2022-12-08T11:54:33.823Z</time>
</trkpt>
<trkpt lat="31.7076400" lon="35.3349600">
<ele>293.509979</ele>
<time>2022-12-08T11:54:33.823Z</time>
</trkpt>
<trkpt lat="31.7076400" lon="35.3349500">
<ele>293.509979</ele>
<time>2022-12-08T11:54:33.823Z</time>
</trkpt>
<trkpt lat="31.7076400" lon="35.3349500">
<ele>293.509979</ele>
<time>2022-12-08T11:54:33.823Z</time>
</trkpt>
<trkpt lat="31.7072900" lon="35.3346900">
<ele>291.929993</ele>
<time>2022-12-08T11:54:33.823Z</time>
</trkpt>
<trkpt lat="31.7070400" lon="35.3340700">
<ele>279.429993</ele>
<time>2022-12-08T11:54:33.823Z</time>
</trkpt>
<trkpt lat="31.7069200" lon="35.3339600">
<ele>275.910004</ele>
<time>2022-12-08T11:54:33.823Z</time>
</trkpt>
<trkpt lat="31.7063900" lon="35.3337200">
<ele>269.339996</ele>
<time>2022-12-08T11:54:33.823Z</time>
</trkpt>
<trkpt lat="31.7058500" lon="35.3334900">
<ele>268.160004</ele>
<time>2022-12-08T11:54:33.823Z</time>
</trkpt>
<trkpt lat="31.7053200" lon="35.3332500">
<ele>263.119995</ele>
<time>2022-12-08T11:54:33.823Z</time>
</trkpt>
<trkpt lat="31.7054100" lon="35.3333600">
<ele>264.509979</ele>
<time>2022-12-08T11:54:33.823Z</time>
</trkpt>
<trkpt lat="31.7054600" lon="35.3333600">
<ele>264.429993</ele>
<time>2022-12-08T11:54:33.823Z</time>
</trkpt>
<trkpt lat="31.7054600" lon="35.3333600">
<ele>264.429993</ele>
<time>2022-12-08T11:54:33.823Z</time>
</trkpt>
<trkpt lat="31.7054600" lon="35.3333500">
<ele>264.399994</ele>
<time>2022-12-08T11:54:33.823Z</time>
</trkpt>
<trkpt lat="31.7055100" lon="35.3333500">
<ele>264.279999</ele>
<time>2022-12-08T11:54:33.823Z</time>
</trkpt>
<trkpt lat="31.7059900" lon="35.3335800">
<ele>269.739990</ele>
<time>2022-12-08T11:54:33.823Z</time>
</trkpt>
<trkpt lat="31.7061700" lon="35.3337300">
<ele>271.029999</ele>
<time>2022-12-08T11:54:33.823Z</time>
</trkpt>
<trkpt lat="31.7063200" lon="35.3337800">
<ele>270.889984</ele>
<time>2022-12-08T11:54:33.823Z</time>
</trkpt>
<trkpt lat="31.7065200" lon="35.3338400">
<ele>271.610016</ele>
<time>2022-12-08T11:54:33.823Z</time>
</trkpt>
<trkpt lat="31.7066300" lon="35.3341800">
<ele>279.000000</ele>
<time>2022-12-08T11:54:33.823Z</time>
</trkpt>
<trkpt lat="31.7068300" lon="35.3346000">
<ele>286.029999</ele>
<time>2022-12-08T11:54:33.823Z</time>
</trkpt>
<trkpt lat="31.7068700" lon="35.3347100">
<ele>287.799988</ele>
<time>2022-12-08T11:54:33.823Z</time>
</trkpt>
<trkpt lat="31.7069200" lon="35.3348400">
<ele>290.380005</ele>
<time>2022-12-08T11:54:33.823Z</time>
</trkpt>
<trkpt lat="31.7069400" lon="35.3349200">
<ele>291.799988</ele>
<time>2022-12-08T11:54:33.823Z</time>
</trkpt>
<trkpt lat="31.7069400" lon="35.3349200">
<ele>291.799988</ele>
<time>2022-12-08T11:54:33.823Z</time>
</trkpt>
<trkpt lat="31.7069400" lon="35.3349200">
<ele>291.799988</ele>
<time>2022-12-08T11:54:33.823Z</time>
</trkpt>
<trkpt lat="31.7070000" lon="35.3351800">
<ele>294.300018</ele>
<time>2022-12-08T11:54:33.823Z</time>
</trkpt>
<trkpt lat="31.7070700" lon="35.3353400">
<ele>295.470001</ele>
<time>2022-12-08T11:54:33.823Z</time>
</trkpt>
<trkpt lat="31.7071400" lon="35.3354900">
<ele>296.220001</ele>
<time>2022-12-08T11:54:33.823Z</time>
</trkpt>
<trkpt lat="31.7072400" lon="35.3356500">
<ele>295.980011</ele>
<time>2022-12-08T11:54:33.823Z</time>
</trkpt>
<trkpt lat="31.7073500" lon="35.3358400">
<ele>296.429993</ele>
<time>2022-12-08T11:54:33.823Z</time>
</trkpt>
<trkpt lat="31.7074600" lon="35.3359500">
<ele>296.740021</ele>
<time>2022-12-08T11:54:33.823Z</time>
</trkpt>
<trkpt lat="31.7076000" lon="35.3360400">
<ele>297.630005</ele>
<time>2022-12-08T11:54:33.823Z</time>
</trkpt>
<trkpt lat="31.7077100" lon="35.3361000">
<ele>298.479980</ele>
<time>2022-12-08T11:54:33.823Z</time>
</trkpt>
<trkpt lat="31.7079300" lon="35.3362000">
<ele>301.429993</ele>
<time>2022-12-08T11:54:33.823Z</time>
</trkpt>
<trkpt lat="31.7079800" lon="35.3362200">
<ele>302.549988</ele>
<time>2022-12-08T11:54:33.823Z</time>
</trkpt>
<trkpt lat="31.7080900" lon="35.3362900">
<ele>304.890015</ele>
<time>2022-12-08T11:54:33.823Z</time>
</trkpt>
<trkpt lat="31.7082300" lon="35.3363800">
<ele>305.880005</ele>
<time>2022-12-08T11:54:33.823Z</time>
</trkpt>
<trkpt lat="31.7082800" lon="35.3364300">
<ele>306.559998</ele>
<time>2022-12-08T11:54:33.823Z</time>
</trkpt>
<trkpt lat="31.7082800" lon="35.3364300">
<ele>306.559998</ele>
<time>2022-12-08T11:54:33.823Z</time>
</trkpt>
<trkpt lat="31.7083100" lon="35.3364800">
<ele>307.279999</ele>
<time>2022-12-08T11:54:33.823Z</time>
</trkpt>
<trkpt lat="31.7083800" lon="35.3366100">
<ele>308.920013</ele>
<time>2022-12-08T11:54:33.823Z</time>
</trkpt>
<trkpt lat="31.7084400" lon="35.3367300">
<ele>309.690002</ele>
<time>2022-12-08T11:54:33.823Z</time>
</trkpt>
<trkpt lat="31.7085700" lon="35.3368600">
<ele>309.690002</ele>
<time>2022-12-08T11:54:33.823Z</time>
</trkpt>
<trkpt lat="31.7086800" lon="35.3370900">
<ele>310.390015</ele>
<time>2022-12-08T11:54:33.823Z</time>
</trkpt>
<trkpt lat="31.7089400" lon="35.3374100">
<ele>308.339996</ele>
<time>2022-12-08T11:54:33.823Z</time>
</trkpt>
<trkpt lat="31.7091200" lon="35.3375800">
<ele>306.239990</ele>
<time>2022-12-08T11:54:33.823Z</time>
</trkpt>
<trkpt lat="31.7091600" lon="35.3379300">
<ele>305.970001</ele>
<time>2022-12-08T11:54:33.823Z</time>
</trkpt>
<trkpt lat="31.7091500" lon="35.3381700">
<ele>304.690002</ele>
<time>2022-12-08T11:54:33.823Z</time>
</trkpt>
<trkpt lat="31.7091600" lon="35.3384700">
<ele>301.059998</ele>
<time>2022-12-08T11:54:33.823Z</time>
</trkpt>
<trkpt lat="31.7091300" lon="35.3385900">
<ele>299.549988</ele>
<time>2022-12-08T11:54:33.823Z</time>
</trkpt>
<trkpt lat="31.7090900" lon="35.3387000">
<ele>298.770020</ele>
<time>2022-12-08T11:54:33.823Z</time>
</trkpt>
<trkpt lat="31.7090800" lon="35.3387000">
<ele>298.860016</ele>
<time>2022-12-08T11:54:33.823Z</time>
</trkpt>
<trkpt lat="31.7090800" lon="35.3387000">
<ele>298.860016</ele>
<time>2022-12-08T11:54:33.823Z</time>
</trkpt>
<trkpt lat="31.7090500" lon="35.3387900">
<ele>298.450012</ele>
<time>2022-12-08T11:54:33.823Z</time>
</trkpt>
<trkpt lat="31.7083600" lon="35.3392300">
<ele>292.829987</ele>
<time>2022-12-08T11:54:33.823Z</time>
</trkpt>
<trkpt lat="31.7079400" lon="35.3398100">
<ele>281.589996</ele>
<time>2022-12-08T11:54:33.823Z</time>
</trkpt>
<trkpt lat="31.7075300" lon="35.3402200">
<ele>276.309998</ele>
<time>2022-12-08T11:54:33.823Z</time>
</trkpt>
<trkpt lat="31.7071100" lon="35.3406200">
<ele>266.529999</ele>
<time>2022-12-08T11:54:33.823Z</time>
</trkpt>
<trkpt lat="31.7068700" lon="35.3411200">
<ele>260.250000</ele>
<time>2022-12-08T11:54:33.823Z</time>
</trkpt>
<trkpt lat="31.7067500" lon="35.3412500">
<ele>256.000000</ele>
<time>2022-12-08T11:54:33.823Z</time>
</trkpt>
<trkpt lat="31.7065400" lon="35.3413300">
<ele>250.350006</ele>
<time>2022-12-08T11:54:33.823Z</time>
</trkpt>
<trkpt lat="31.7060000" lon="35.3417200">
<ele>238.979996</ele>
<time>2022-12-08T11:54:33.823Z</time>
</trkpt>
<trkpt lat="31.7054600" lon="35.3421100">
<ele>230.380005</ele>
<time>2022-12-08T11:54:33.823Z</time>
</trkpt>
<trkpt lat="31.7047500" lon="35.3424200">
<ele>215.440002</ele>
<time>2022-12-08T11:54:33.823Z</time>
</trkpt>
<trkpt lat="31.7045800" lon="35.3424000">
<ele>214.199997</ele>
<time>2022-12-08T11:54:33.823Z</time>
</trkpt>
<trkpt lat="31.7040700" lon="35.3421200">
<ele>211.520004</ele>
<time>2022-12-08T11:54:33.823Z</time>
</trkpt>
<trkpt lat="31.7039100" lon="35.3421700">
<ele>209.560013</ele>
<time>2022-12-08T11:54:33.823Z</time>
</trkpt>
<trkpt lat="31.7040800" lon="35.3429600">
<ele>202.860016</ele>
<time>2022-12-08T11:54:33.823Z</time>
</trkpt>
<trkpt lat="31.7039500" lon="35.3435500">
<ele>191.779999</ele>
<time>2022-12-08T11:54:33.823Z</time>
</trkpt>
<trkpt lat="31.7040800" lon="35.3438000">
<ele>187.980011</ele>
<time>2022-12-08T11:54:33.823Z</time>
</trkpt>
<trkpt lat="31.7041100" lon="35.3440500">
<ele>182.789993</ele>
<time>2022-12-08T11:54:33.823Z</time>
</trkpt>
<trkpt lat="31.7036200" lon="35.3444600">
<ele>173.800003</ele>
<time>2022-12-08T11:54:33.823Z</time>
</trkpt>
<trkpt lat="31.7034900" lon="35.3447700">
<ele>169.270004</ele>
<time>2022-12-08T11:54:33.823Z</time>
</trkpt>
<trkpt lat="31.7035600" lon="35.3449500">
<ele>166.529999</ele>
<time>2022-12-08T11:54:33.823Z</time>
</trkpt>
<trkpt lat="31.7038400" lon="35.3452100">
<ele>159.750000</ele>
<time>2022-12-08T11:54:33.823Z</time>
</trkpt>
<trkpt lat="31.7041100" lon="35.3460300">
<ele>145.990005</ele>
<time>2022-12-08T11:54:33.823Z</time>
</trkpt>
<trkpt lat="31.7043200" lon="35.3462700">
<ele>141.100006</ele>
<time>2022-12-08T11:54:33.823Z</time>
</trkpt>
<trkpt lat="31.7043800" lon="35.3464900">
<ele>137.460007</ele>
<time>2022-12-08T11:54:33.823Z</time>
</trkpt>
<trkpt lat="31.7043400" lon="35.3467200">
<ele>134.910004</ele>
<time>2022-12-08T11:54:33.823Z</time>
</trkpt>
<trkpt lat="31.7042800" lon="35.3468500">
<ele>134.830002</ele>
<time>2022-12-08T11:54:33.823Z</time>
</trkpt>
<trkpt lat="31.7041300" lon="35.3469700">
<ele>131.979996</ele>
<time>2022-12-08T11:54:33.823Z</time>
</trkpt>
<trkpt lat="31.7039100" lon="35.3472300">
<ele>125.479996</ele>
<time>2022-12-08T11:54:33.823Z</time>
</trkpt>
<trkpt lat="31.7038600" lon="35.3474200">
<ele>123.459999</ele>
<time>2022-12-08T11:54:33.823Z</time>
</trkpt>
<trkpt lat="31.7036500" lon="35.3478100">
<ele>118.939995</ele>
<time>2022-12-08T11:54:33.823Z</time>
</trkpt>
<trkpt lat="31.7031700" lon="35.3482000">
<ele>113.770004</ele>
<time>2022-12-08T11:54:33.823Z</time>
</trkpt>
<trkpt lat="31.7028700" lon="35.3485700">
<ele>110.849998</ele>
<time>2022-12-08T11:54:33.823Z</time>
</trkpt>
<trkpt lat="31.7027400" lon="35.3490200">
<ele>109.099998</ele>
<time>2022-12-08T11:54:33.823Z</time>
</trkpt>
<trkpt lat="31.7027000" lon="35.3495700">
<ele>110.839996</ele>
<time>2022-12-08T11:54:33.823Z</time>
</trkpt>
<trkpt lat="31.7025300" lon="35.3500400">
<ele>107.230003</ele>
<time>2022-12-08T11:54:33.823Z</time>
</trkpt>
<trkpt lat="31.7020900" lon="35.3505500">
<ele>104.619995</ele>
<time>2022-12-08T11:54:33.823Z</time>
</trkpt>
<trkpt lat="31.7020200" lon="35.3510800">
<ele>105.570000</ele>
<time>2022-12-08T11:54:33.823Z</time>
</trkpt>
<trkpt lat="31.7019100" lon="35.3513000">
<ele>105.130005</ele>
<time>2022-12-08T11:54:33.823Z</time>
</trkpt>
<trkpt lat="31.7014600" lon="35.3517500">
<ele>104.889999</ele>
<time>2022-12-08T11:54:33.823Z</time>
</trkpt>
<trkpt lat="31.7013400" lon="35.3521200">
<ele>105.979996</ele>
<time>2022-12-08T11:54:33.823Z</time>
</trkpt>
<trkpt lat="31.7014100" lon="35.3526400">
<ele>104.950005</ele>
<time>2022-12-08T11:54:33.823Z</time>
</trkpt>
<trkpt lat="31.7014900" lon="35.3531700">
<ele>99.800003</ele>
<time>2022-12-08T11:54:33.823Z</time>
</trkpt>
<trkpt lat="31.7016800" lon="35.3537100">
<ele>99.160004</ele>
<time>2022-12-08T11:54:33.823Z</time>
</trkpt>
<trkpt lat="31.7015500" lon="35.3544100">
<ele>97.269997</ele>
<time>2022-12-08T11:54:33.823Z</time>
</trkpt>
<trkpt lat="31.7016500" lon="35.3549500">
<ele>97.230003</ele>
<time>2022-12-08T11:54:33.823Z</time>
</trkpt>
<trkpt lat="31.7017500" lon="35.3554800">
<ele>94.360001</ele>
<time>2022-12-08T11:54:33.823Z</time>
</trkpt>
<trkpt lat="31.7019200" lon="35.3561600">
<ele>91.010002</ele>
<time>2022-12-08T11:54:33.823Z</time>
</trkpt>
<trkpt lat="31.7022900" lon="35.3567300">
<ele>89.279999</ele>
<time>2022-12-08T11:54:33.823Z</time>
</trkpt>
<trkpt lat="31.7022100" lon="35.3573000">
<ele>86.650002</ele>
<time>2022-12-08T11:54:33.823Z</time>
</trkpt>
<trkpt lat="31.7021200" lon="35.3578800">
<ele>81.400002</ele>
<time>2022-12-08T11:54:33.823Z</time>
</trkpt>
<trkpt lat="31.7022200" lon="35.3586700">
<ele>78.440002</ele>
<time>2022-12-08T11:54:33.823Z</time>
</trkpt>
<trkpt lat="31.7019200" lon="35.3595200">
<ele>79.599998</ele>
<time>2022-12-08T11:54:33.823Z</time>
</trkpt>
<trkpt lat="31.7018500" lon="35.3601000">
<ele>76.760002</ele>
<time>2022-12-08T11:54:33.823Z</time>
</trkpt>
<trkpt lat="31.7016800" lon="35.3605400">
<ele>75.150002</ele>
<time>2022-12-08T11:54:33.823Z</time>
</trkpt>
<trkpt lat="31.7015600" lon="35.3612600">
<ele>74.669998</ele>
<time>2022-12-08T11:54:33.823Z</time>
</trkpt>
<trkpt lat="31.7013600" lon="35.3618000">
<ele>73.010002</ele>
<time>2022-12-08T11:54:33.823Z</time>
</trkpt>
<trkpt lat="31.7011500" lon="35.3623400">
<ele>71.049995</ele>
<time>2022-12-08T11:54:33.823Z</time>
</trkpt>
<trkpt lat="31.7010200" lon="35.3625400">
<ele>70.930000</ele>
<time>2022-12-08T11:54:33.823Z</time>
</trkpt>
<trkpt lat="31.7008000" lon="35.3627000">
<ele>68.269997</ele>
<time>2022-12-08T11:54:33.823Z</time>
</trkpt>
<trkpt lat="31.7007300" lon="35.3628800">
<ele>67.739998</ele>
<time>2022-12-08T11:54:33.823Z</time>
</trkpt>
<trkpt lat="31.7007100" lon="35.3632000">
<ele>67.260002</ele>
<time>2022-12-08T11:54:33.823Z</time>
</trkpt>
<trkpt lat="31.7008300" lon="35.3635700">
<ele>68.949997</ele>
<time>2022-12-08T11:54:33.823Z</time>
</trkpt>
<trkpt lat="31.7008200" lon="35.3641500">
<ele>70.650002</ele>
<time>2022-12-08T11:54:33.823Z</time>
</trkpt>
<trkpt lat="31.7008200" lon="35.3647300">
<ele>69.800003</ele>
<time>2022-12-08T11:54:33.823Z</time>
</trkpt>
<trkpt lat="31.7008100" lon="35.3653100">
<ele>65.750000</ele>
<time>2022-12-08T11:54:33.823Z</time>
</trkpt>
<trkpt lat="31.7006600" lon="35.3661600">
<ele>68.150002</ele>
<time>2022-12-08T11:54:33.823Z</time>
</trkpt>
<trkpt lat="31.7006500" lon="35.3669300">
<ele>62.770000</ele>
<time>2022-12-08T11:54:33.823Z</time>
</trkpt>
<trkpt lat="31.7005400" lon="35.3674800">
<ele>64.459999</ele>
<time>2022-12-08T11:54:33.823Z</time>
</trkpt>
<trkpt lat="31.7001500" lon="35.3681300">
<ele>57.120003</ele>
<time>2022-12-08T11:54:33.823Z</time>
</trkpt>
<trkpt lat="31.6997600" lon="35.3687700">
<ele>52.040001</ele>
<time>2022-12-08T11:54:33.823Z</time>
</trkpt>
<trkpt lat="31.6994000" lon="35.3691500">
<ele>47.489998</ele>
<time>2022-12-08T11:54:33.823Z</time>
</trkpt>
<trkpt lat="31.6992300" lon="35.3701800">
<ele>48.380001</ele>
<time>2022-12-08T11:54:33.823Z</time>
</trkpt>
<trkpt lat="31.6988700" lon="35.3710000">
<ele>50.260002</ele>
<time>2022-12-08T11:54:33.823Z</time>
</trkpt>
<trkpt lat="31.6987400" lon="35.3716600">
<ele>51.400002</ele>
<time>2022-12-08T11:54:33.823Z</time>
</trkpt>
<trkpt lat="31.6985400" lon="35.3722200">
<ele>49.459999</ele>
<time>2022-12-08T11:54:33.823Z</time>
</trkpt>
<trkpt lat="31.6981900" lon="35.3725600">
<ele>50.940002</ele>
<time>2022-12-08T11:54:33.823Z</time>
</trkpt>
<trkpt lat="31.6981300" lon="35.3731300">
<ele>57.320000</ele>
<time>2022-12-08T11:54:33.823Z</time>
</trkpt>
<trkpt lat="31.6980700" lon="35.3737100">
<ele>60.509998</ele>
<time>2022-12-08T11:54:33.823Z</time>
</trkpt>
<trkpt lat="31.6980100" lon="35.3742800">
<ele>60.100002</ele>
<time>2022-12-08T11:54:33.823Z</time>
</trkpt>
<trkpt lat="31.6982300" lon="35.3749500">
<ele>53.090000</ele>
<time>2022-12-08T11:54:33.823Z</time>
</trkpt>
<trkpt lat="31.6984500" lon="35.3754400">
<ele>45.820000</ele>
<time>2022-12-08T11:54:33.823Z</time>
</trkpt>
<trkpt lat="31.6986700" lon="35.3759300">
<ele>41.299999</ele>
<time>2022-12-08T11:54:33.823Z</time>
</trkpt>
<trkpt lat="31.6988900" lon="35.3764100">
<ele>40.930000</ele>
<time>2022-12-08T11:54:33.823Z</time>
</trkpt>
<trkpt lat="31.6991100" lon="35.3769000">
<ele>39.290001</ele>
<time>2022-12-08T11:54:33.823Z</time>
</trkpt>
<trkpt lat="31.6993300" lon="35.3773900">
<ele>37.709999</ele>
<time>2022-12-08T11:54:33.823Z</time>
</trkpt>
<trkpt lat="31.6994400" lon="35.3778200">
<ele>33.720001</ele>
<time>2022-12-08T11:54:33.823Z</time>
</trkpt>
<trkpt lat="31.6999000" lon="35.3779500">
<ele>34.279999</ele>
<time>2022-12-08T11:54:33.823Z</time>
</trkpt>
<trkpt lat="31.6999000" lon="35.3779500">
<ele>34.279999</ele>
<time>2022-12-08T11:54:33.823Z</time>
</trkpt>
<trkpt lat="31.6998900" lon="35.3779900">
<ele>33.820000</ele>
<time>2022-12-08T11:54:33.823Z</time>
</trkpt>
<trkpt lat="31.7001900" lon="35.3780700">
<ele>36.160000</ele>
<time>2022-12-08T11:54:33.823Z</time>
</trkpt>
<trkpt lat="31.7003400" lon="35.3782800">
<ele>37.750000</ele>
<time>2022-12-08T11:54:33.823Z</time>
</trkpt>
<trkpt lat="31.7004300" lon="35.3783500">
<ele>36.389999</ele>
<time>2022-12-08T11:54:33.823Z</time>
</trkpt>
<trkpt lat="31.7006400" lon="35.3785200">
<ele>36.720001</ele>
<time>2022-12-08T11:54:33.823Z</time>
</trkpt>
<trkpt lat="31.7006400" lon="35.3785200">
<ele>36.720001</ele>
<time>2022-12-08T11:54:33.823Z</time>
</trkpt>
<trkpt lat="31.7001000" lon="35.3790100">
<ele>38.329998</ele>
<time>2022-12-08T11:54:33.823Z</time>
</trkpt>
<trkpt lat="31.7007500" lon="35.3796800">
<ele>34.750000</ele>
<time>2022-12-08T11:54:33.823Z</time>
</trkpt>
<trkpt lat="31.7009400" lon="35.3802900">
<ele>31.020000</ele>
<time>2022-12-08T11:54:33.823Z</time>
</trkpt>
<trkpt lat="31.7009600" lon="35.3803400">
<ele>31.099998</ele>
<time>2022-12-08T11:54:33.823Z</time>
</trkpt>
<trkpt lat="31.7009800" lon="35.3804200">
<ele>31.270000</ele>
<time>2022-12-08T11:54:33.823Z</time>
</trkpt>
<trkpt lat="31.7009700" lon="35.3805300">
<ele>31.449999</ele>
<time>2022-12-08T11:54:33.823Z</time>
</trkpt>
<trkpt lat="31.7009100" lon="35.3807700">
<ele>30.369999</ele>
<time>2022-12-08T11:54:33.823Z</time>
</trkpt>
<trkpt lat="31.7006800" lon="35.3812400">
<ele>30.200001</ele>
<time>2022-12-08T11:54:33.823Z</time>
</trkpt>
<trkpt lat="31.7006500" lon="35.3813300">
<ele>30.730001</ele>
<time>2022-12-08T11:54:33.823Z</time>
</trkpt>
<trkpt lat="31.7006600" lon="35.3813400">
<ele>30.839998</ele>
<time>2022-12-08T11:54:33.823Z</time>
</trkpt>
<trkpt lat="31.7006600" lon="35.3813400">
<ele>30.839998</ele>
<time>2022-12-08T11:54:33.823Z</time>
</trkpt>
<trkpt lat="31.7005100" lon="35.3816400">
<ele>31.820000</ele>
<time>2022-12-08T11:54:33.823Z</time>
</trkpt>
<trkpt lat="31.7002600" lon="35.3823900">
<ele>32.200001</ele>
<time>2022-12-08T11:54:33.823Z</time>
</trkpt>
<trkpt lat="31.7001800" lon="35.3831000">
<ele>29.349998</ele>
<time>2022-12-08T11:54:33.823Z</time>
</trkpt>
<trkpt lat="31.7005300" lon="35.3834900">
<ele>30.250000</ele>
<time>2022-12-08T11:54:33.823Z</time>
</trkpt>
<trkpt lat="31.7008800" lon="35.3838700">
<ele>29.469999</ele>
<time>2022-12-08T11:54:33.823Z</time>
</trkpt>
<trkpt lat="31.7013500" lon="35.3844700">
<ele>30.330000</ele>
<time>2022-12-08T11:54:33.823Z</time>
</trkpt>
<trkpt lat="31.7012200" lon="35.3851000">
<ele>31.389999</ele>
<time>2022-12-08T11:54:33.823Z</time>
</trkpt>
<trkpt lat="31.7014300" lon="35.3855800">
<ele>36.160000</ele>
<time>2022-12-08T11:54:33.823Z</time>
</trkpt>
<trkpt lat="31.7016400" lon="35.3860700">
<ele>35.470001</ele>
<time>2022-12-08T11:54:33.823Z</time>
</trkpt>
<trkpt lat="31.7018500" lon="35.3865500">
<ele>34.540001</ele>
<time>2022-12-08T11:54:33.823Z</time>
</trkpt>
<trkpt lat="31.7020600" lon="35.3870300">
<ele>38.160000</ele>
<time>2022-12-08T11:54:33.823Z</time>
</trkpt>
<trkpt lat="31.7022700" lon="35.3875100">
<ele>41.930000</ele>
<time>2022-12-08T11:54:33.823Z</time>
</trkpt>
<trkpt lat="31.7024800" lon="35.3880000">
<ele>39.320000</ele>
<time>2022-12-08T11:54:33.823Z</time>
</trkpt>
<trkpt lat="31.7026900" lon="35.3884800">
<ele>45.889999</ele>
<time>2022-12-08T11:54:33.823Z</time>
</trkpt>
<trkpt lat="31.7029000" lon="35.3889600">
<ele>44.790001</ele>
<time>2022-12-08T11:54:33.823Z</time>
</trkpt>
<trkpt lat="31.7031100" lon="35.3894400">
<ele>46.189999</ele>
<time>2022-12-08T11:54:33.823Z</time>
</trkpt>
<trkpt lat="31.7033200" lon="35.3899300">
<ele>48.980000</ele>
<time>2022-12-08T11:54:33.823Z</time>
</trkpt>
<trkpt lat="31.7035300" lon="35.3904100">
<ele>48.660004</ele>
<time>2022-12-08T11:54:33.823Z</time>
</trkpt>
<trkpt lat="31.7037400" lon="35.3908900">
<ele>46.700001</ele>
<time>2022-12-08T11:54:33.823Z</time>
</trkpt>
<trkpt lat="31.7039200" lon="35.3913800">
<ele>46.519997</ele>
<time>2022-12-08T11:54:33.823Z</time>
</trkpt>
<trkpt lat="31.7040900" lon="35.3918600">
<ele>51.290001</ele>
<time>2022-12-08T11:54:33.823Z</time>
</trkpt>
<trkpt lat="31.7042700" lon="35.3923500">
<ele>53.260002</ele>
<time>2022-12-08T11:54:33.823Z</time>
</trkpt>
<trkpt lat="31.7044400" lon="35.3928400">
<ele>54.889999</ele>
<time>2022-12-08T11:54:33.823Z</time>
</trkpt>
<trkpt lat="31.7046100" lon="35.3933800">
<ele>60.609997</ele>
<time>2022-12-08T11:54:33.823Z</time>
</trkpt>
<trkpt lat="31.7047900" lon="35.3939200">
<ele>58.130001</ele>
<time>2022-12-08T11:54:33.823Z</time>
</trkpt>
<trkpt lat="31.7049600" lon="35.3944700">
<ele>53.760002</ele>
<time>2022-12-08T11:54:33.823Z</time>
</trkpt>
<trkpt lat="31.7051300" lon="35.3950100">
<ele>56.740002</ele>
<time>2022-12-08T11:54:33.823Z</time>
</trkpt>
<trkpt lat="31.7057500" lon="35.3957600">
<ele>49.950001</ele>
<time>2022-12-08T11:54:33.823Z</time>
</trkpt>
<trkpt lat="31.7061000" lon="35.3964900">
<ele>38.590000</ele>
<time>2022-12-08T11:54:33.823Z</time>
</trkpt>
<trkpt lat="31.7061600" lon="35.3970300">
<ele>42.190002</ele>
<time>2022-12-08T11:54:33.823Z</time>
</trkpt>
<trkpt lat="31.7062100" lon="35.3975700">
<ele>42.380001</ele>
<time>2022-12-08T11:54:33.823Z</time>
</trkpt>
<trkpt lat="31.7062700" lon="35.3981100">
<ele>45.080002</ele>
<time>2022-12-08T11:54:33.823Z</time>
</trkpt>
<trkpt lat="31.7063200" lon="35.3986500">
<ele>48.970001</ele>
<time>2022-12-08T11:54:33.823Z</time>
</trkpt>
<trkpt lat="31.7063800" lon="35.3991900">
<ele>51.500000</ele>
<time>2022-12-08T11:54:33.823Z</time>
</trkpt>
<trkpt lat="31.7064300" lon="35.3997300">
<ele>61.500000</ele>
<time>2022-12-08T11:54:33.823Z</time>
</trkpt>
<trkpt lat="31.7063000" lon="35.4005500">
<ele>71.209999</ele>
<time>2022-12-08T11:54:33.823Z</time>
</trkpt>
<trkpt lat="31.7060600" lon="35.4011200">
<ele>77.659996</ele>
<time>2022-12-08T11:54:33.823Z</time>
</trkpt>
<trkpt lat="31.7059000" lon="35.4018800">
<ele>79.699997</ele>
<time>2022-12-08T11:54:33.823Z</time>
</trkpt>
<trkpt lat="31.7056200" lon="35.4025800">
<ele>81.759995</ele>
<time>2022-12-08T11:54:33.823Z</time>
</trkpt>
<trkpt lat="31.7055400" lon="35.4031800">
<ele>78.169998</ele>
<time>2022-12-08T11:54:33.823Z</time>
</trkpt>
<trkpt lat="31.7054700" lon="35.4036600">
<ele>76.269997</ele>
<time>2022-12-08T11:54:33.823Z</time>
</trkpt>
<trkpt lat="31.7054700" lon="35.4036600">
<ele>76.269997</ele>
<time>2022-12-08T11:54:33.823Z</time>
</trkpt>
<trkpt lat="31.7054700" lon="35.4036600">
<ele>76.269997</ele>
<time>2022-12-08T11:54:33.823Z</time>
</trkpt>
<trkpt lat="31.7053900" lon="35.4039800">
<ele>79.350006</ele>
<time>2022-12-08T11:54:33.823Z</time>
</trkpt>
<trkpt lat="31.7053600" lon="35.4041000">
<ele>81.089996</ele>
<time>2022-12-08T11:54:33.823Z</time>
</trkpt>
<trkpt lat="31.7053600" lon="35.4041800">
<ele>81.660004</ele>
<time>2022-12-08T11:54:33.823Z</time>
</trkpt>
<trkpt lat="31.7052900" lon="35.4048000">
<ele>84.380005</ele>
<time>2022-12-08T11:54:33.823Z</time>
</trkpt>
<trkpt lat="31.7055900" lon="35.4057000">
<ele>92.169998</ele>
<time>2022-12-08T11:54:33.823Z</time>
</trkpt>
<trkpt lat="31.7055900" lon="35.4057000">
<ele>92.169998</ele>
<time>2022-12-08T11:54:33.823Z</time>
</trkpt>
<trkpt lat="31.7056300" lon="35.4058300">
<ele>91.470001</ele>
<time>2022-12-08T11:54:33.823Z</time>
</trkpt>
<trkpt lat="31.7059200" lon="35.4067300">
<ele>90.570000</ele>
<time>2022-12-08T11:54:33.823Z</time>
</trkpt>
<trkpt lat="31.7059800" lon="35.4069400">
<ele>88.490005</ele>
<time>2022-12-08T11:54:33.823Z</time>
</trkpt>
<trkpt lat="31.7060200" lon="35.4072500">
<ele>89.799995</ele>
<time>2022-12-08T11:54:33.823Z</time>
</trkpt>
<trkpt lat="31.7060200" lon="35.4072500">
<ele>89.799995</ele>
<time>2022-12-08T11:54:33.823Z</time>
</trkpt>
<trkpt lat="31.7060200" lon="35.4072500">
<ele>89.799995</ele>
<time>2022-12-08T11:54:33.823Z</time>
</trkpt>
<trkpt lat="31.7060700" lon="35.4077100">
<ele>89.599998</ele>
<time>2022-12-08T11:54:33.823Z</time>
</trkpt>
<trkpt lat="31.7060000" lon="35.4078600">
<ele>88.810005</ele>
<time>2022-12-08T11:54:33.823Z</time>
</trkpt>
<trkpt lat="31.7058800" lon="35.4081900">
<ele>86.540001</ele>
<time>2022-12-08T11:54:33.823Z</time>
</trkpt>
<trkpt lat="31.7056900" lon="35.4085700">
<ele>87.450005</ele>
<time>2022-12-08T11:54:33.823Z</time>
</trkpt>
<trkpt lat="31.7056900" lon="35.4085700">
<ele>87.450005</ele>
<time>2022-12-08T11:54:33.823Z</time>
</trkpt>
<trkpt lat="31.7055900" lon="35.4089000">
<ele>89.169998</ele>
<time>2022-12-08T11:54:33.823Z</time>
</trkpt>
<trkpt lat="31.7055000" lon="35.4090300">
<ele>89.500000</ele>
<time>2022-12-08T11:54:33.823Z</time>
</trkpt>
<trkpt lat="31.7054600" lon="35.4091900">
<ele>89.769997</ele>
<time>2022-12-08T11:54:33.823Z</time>
</trkpt>
<trkpt lat="31.7053400" lon="35.4094300">
<ele>89.649994</ele>
<time>2022-12-08T11:54:33.823Z</time>
</trkpt>
<trkpt lat="31.7051100" lon="35.4098000">
<ele>85.120003</ele>
<time>2022-12-08T11:54:33.823Z</time>
</trkpt>
<trkpt lat="31.7050100" lon="35.4100200">
<ele>82.900002</ele>
<time>2022-12-08T11:54:33.823Z</time>
</trkpt>
<trkpt lat="31.7050000" lon="35.4101300">
<ele>82.059998</ele>
<time>2022-12-08T11:54:33.823Z</time>
</trkpt>
<trkpt lat="31.7049700" lon="35.4102500">
<ele>81.200005</ele>
<time>2022-12-08T11:54:33.823Z</time>
</trkpt>
<trkpt lat="31.7049600" lon="35.4104000">
<ele>80.430000</ele>
<time>2022-12-08T11:54:33.823Z</time>
</trkpt>
<trkpt lat="31.7049300" lon="35.4104900">
<ele>79.849998</ele>
<time>2022-12-08T11:54:33.823Z</time>
</trkpt>
<trkpt lat="31.7049300" lon="35.4110700">
<ele>74.939995</ele>
<time>2022-12-08T11:54:33.823Z</time>
</trkpt>
<trkpt lat="31.7049500" lon="35.4112300">
<ele>73.900002</ele>
<time>2022-12-08T11:54:33.823Z</time>
</trkpt>
<trkpt lat="31.7049100" lon="35.4113500">
<ele>72.379997</ele>
<time>2022-12-08T11:54:33.823Z</time>
</trkpt>
<trkpt lat="31.7047500" lon="35.4116100">
<ele>66.930000</ele>
<time>2022-12-08T11:54:33.823Z</time>
</trkpt>
<trkpt lat="31.7047100" lon="35.4117400">
<ele>66.059998</ele>
<time>2022-12-08T11:54:33.823Z</time>
</trkpt>
<trkpt lat="31.7047100" lon="35.4120600">
<ele>65.750000</ele>
<time>2022-12-08T11:54:33.823Z</time>
</trkpt>
<trkpt lat="31.7047900" lon="35.4124200">
<ele>65.830002</ele>
<time>2022-12-08T11:54:33.823Z</time>
</trkpt>
<trkpt lat="31.7048600" lon="35.4126200">
<ele>65.510002</ele>
<time>2022-12-08T11:54:33.823Z</time>
</trkpt>
<trkpt lat="31.7049300" lon="35.4127400">
<ele>64.760002</ele>
<time>2022-12-08T11:54:33.823Z</time>
</trkpt>
<trkpt lat="31.7050800" lon="35.4129500">
<ele>61.189999</ele>
<time>2022-12-08T11:54:33.823Z</time>
</trkpt>
<trkpt lat="31.7052600" lon="35.4131200">
<ele>60.189999</ele>
<time>2022-12-08T11:54:33.823Z</time>
</trkpt>
<trkpt lat="31.7053100" lon="35.4131900">
<ele>61.119999</ele>
<time>2022-12-08T11:54:33.823Z</time>
</trkpt>
<trkpt lat="31.7054000" lon="35.4133700">
<ele>63.230000</ele>
<time>2022-12-08T11:54:33.823Z</time>
</trkpt>
<trkpt lat="31.7054500" lon="35.4135400">
<ele>63.739998</ele>
<time>2022-12-08T11:54:33.823Z</time>
</trkpt>
<trkpt lat="31.7055600" lon="35.4137100">
<ele>62.220001</ele>
<time>2022-12-08T11:54:33.823Z</time>
</trkpt>
<trkpt lat="31.7057300" lon="35.4138200">
<ele>58.350002</ele>
<time>2022-12-08T11:54:33.823Z</time>
</trkpt>
<trkpt lat="31.7057200" lon="35.4138400">
<ele>57.750000</ele>
<time>2022-12-08T11:54:33.823Z</time>
</trkpt>
<trkpt lat="31.7057200" lon="35.4138400">
<ele>57.750000</ele>
<time>2022-12-08T11:54:33.823Z</time>
</trkpt>
<trkpt lat="31.7060000" lon="35.4140300">
<ele>54.950001</ele>
<time>2022-12-08T11:54:33.823Z</time>
</trkpt>
<trkpt lat="31.7060000" lon="35.4142400">
<ele>53.070000</ele>
<time>2022-12-08T11:54:33.823Z</time>
</trkpt>
<trkpt lat="31.7064100" lon="35.4148300">
<ele>49.820000</ele>
<time>2022-12-08T11:54:33.823Z</time>
</trkpt>
<trkpt lat="31.7065500" lon="35.4154100">
<ele>46.570000</ele>
<time>2022-12-08T11:54:33.823Z</time>
</trkpt>
<trkpt lat="31.7067600" lon="35.4156600">
<ele>43.910000</ele>
<time>2022-12-08T11:54:33.823Z</time>
</trkpt>
<trkpt lat="31.7068800" lon="35.4161400">
<ele>38.860001</ele>
<time>2022-12-08T11:54:33.823Z</time>
</trkpt>
<trkpt lat="31.7070500" lon="35.4163600">
<ele>37.849998</ele>
<time>2022-12-08T11:54:33.823Z</time>
</trkpt>
<trkpt lat="31.7073700" lon="35.4165400">
<ele>35.930000</ele>
<time>2022-12-08T11:54:33.823Z</time>
</trkpt>
<trkpt lat="31.7076400" lon="35.4170500">
<ele>37.950001</ele>
<time>2022-12-08T11:54:33.823Z</time>
</trkpt>
<trkpt lat="31.7078000" lon="35.4172200">
<ele>38.920002</ele>
<time>2022-12-08T11:54:33.823Z</time>
</trkpt>
<trkpt lat="31.7082200" lon="35.4174300">
<ele>34.320000</ele>
<time>2022-12-08T11:54:33.823Z</time>
</trkpt>
<trkpt lat="31.7084700" lon="35.4179800">
<ele>32.549999</ele>
<time>2022-12-08T11:54:33.823Z</time>
</trkpt>
<trkpt lat="31.7090300" lon="35.4183900">
<ele>27.439999</ele>
<time>2022-12-08T11:54:33.823Z</time>
</trkpt>
<trkpt lat="31.7091900" lon="35.4187000">
<ele>19.910002</ele>
<time>2022-12-08T11:54:33.823Z</time>
</trkpt>
<trkpt lat="31.7091400" lon="35.4189200">
<ele>17.250000</ele>
<time>2022-12-08T11:54:33.823Z</time>
</trkpt>
<trkpt lat="31.7092300" lon="35.4193300">
<ele>19.139999</ele>
<time>2022-12-08T11:54:33.823Z</time>
</trkpt>
<trkpt lat="31.7097400" lon="35.4197500">
<ele>17.990000</ele>
<time>2022-12-08T11:54:33.823Z</time>
</trkpt>
<trkpt lat="31.7101400" lon="35.4206400">
<ele>9.260000</ele>
<time>2022-12-08T11:54:33.823Z</time>
</trkpt>
<trkpt lat="31.7104000" lon="35.4209300">
<ele>10.940000</ele>
<time>2022-12-08T11:54:33.823Z</time>
</trkpt>
<trkpt lat="31.7106600" lon="35.4214200">
<ele>12.400000</ele>
<time>2022-12-08T11:54:33.823Z</time>
</trkpt>
<trkpt lat="31.7107100" lon="35.4218700">
<ele>13.240000</ele>
<time>2022-12-08T11:54:33.823Z</time>
</trkpt>
<trkpt lat="31.7106200" lon="35.4226400">
<ele>9.470000</ele>
<time>2022-12-08T11:54:33.823Z</time>
</trkpt>
<trkpt lat="31.7104600" lon="35.4229400">
<ele>8.380000</ele>
<time>2022-12-08T11:54:33.823Z</time>
</trkpt>
<trkpt lat="31.7103200" lon="35.4236900">
<ele>-2.050000</ele>
<time>2022-12-08T11:54:33.823Z</time>
</trkpt>
<trkpt lat="31.7102800" lon="35.4242700">
<ele>-3.580000</ele>
<time>2022-12-08T11:54:33.823Z</time>
</trkpt>
<trkpt lat="31.7102300" lon="35.4248500">
<ele>0.560000</ele>
<time>2022-12-08T11:54:33.823Z</time>
</trkpt>
<trkpt lat="31.7104300" lon="35.4256500">
<ele>-7.430000</ele>
<time>2022-12-08T11:54:33.823Z</time>
</trkpt>
<trkpt lat="31.7105000" lon="35.4263800">
<ele>-15.560000</ele>
<time>2022-12-08T11:54:33.823Z</time>
</trkpt>
<trkpt lat="31.7107200" lon="35.4269400">
<ele>-16.799999</ele>
<time>2022-12-08T11:54:33.823Z</time>
</trkpt>
<trkpt lat="31.7107500" lon="35.4274800">
<ele>-24.030001</ele>
<time>2022-12-08T11:54:33.823Z</time>
</trkpt>
<trkpt lat="31.7108700" lon="35.4277300">
<ele>-23.930000</ele>
<time>2022-12-08T11:54:33.823Z</time>
</trkpt>
<trkpt lat="31.7107500" lon="35.4274600">
<ele>-23.770000</ele>
<time>2022-12-08T11:54:33.823Z</time>
</trkpt>
<trkpt lat="31.7107100" lon="35.4269300">
<ele>-16.850000</ele>
<time>2022-12-08T11:54:33.823Z</time>
</trkpt>
<trkpt lat="31.7107800" lon="35.4271400">
<ele>-19.200001</ele>
<time>2022-12-08T11:54:33.823Z</time>
</trkpt>
<trkpt lat="31.7107400" lon="35.4274600">
<ele>-23.809999</ele>
<time>2022-12-08T11:54:33.823Z</time>
</trkpt>
<trkpt lat="31.7111800" lon="35.4282700">
<ele>-27.660000</ele>
<time>2022-12-08T11:54:33.823Z</time>
</trkpt>
<trkpt lat="31.7111700" lon="35.4285000">
<ele>-28.469999</ele>
<time>2022-12-08T11:54:33.823Z</time>
</trkpt>
<trkpt lat="31.7110600" lon="35.4288500">
<ele>-27.730000</ele>
<time>2022-12-08T11:54:33.823Z</time>
</trkpt>
<trkpt lat="31.7108300" lon="35.4291500">
<ele>-30.879999</ele>
<time>2022-12-08T11:54:33.823Z</time>
</trkpt>
<trkpt lat="31.7110300" lon="35.4295400">
<ele>-29.090002</ele>
<time>2022-12-08T11:54:33.823Z</time>
</trkpt>
<trkpt lat="31.7111100" lon="35.4299700">
<ele>-29.879999</ele>
<time>2022-12-08T11:54:33.823Z</time>
</trkpt>
<trkpt lat="31.7112400" lon="35.4301700">
<ele>-31.190001</ele>
<time>2022-12-08T11:54:33.823Z</time>
</trkpt>
<trkpt lat="31.7113400" lon="35.4305300">
<ele>-33.510002</ele>
<time>2022-12-08T11:54:33.823Z</time>
</trkpt>
<trkpt lat="31.7116400" lon="35.4308300">
<ele>-34.200001</ele>
<time>2022-12-08T11:54:33.823Z</time>
</trkpt>
<trkpt lat="31.7113600" lon="35.4315500">
<ele>-37.950001</ele>
<time>2022-12-08T11:54:33.823Z</time>
</trkpt>
<trkpt lat="31.7114200" lon="35.4314700">
<ele>-37.360001</ele>
<time>2022-12-08T11:54:33.823Z</time>
</trkpt>
<trkpt lat="31.7113500" lon="35.4317800">
<ele>-39.130001</ele>
<time>2022-12-08T11:54:33.823Z</time>
</trkpt>
<trkpt lat="31.7114300" lon="35.4321400">
<ele>-40.220001</ele>
<time>2022-12-08T11:54:33.823Z</time>
</trkpt>
<trkpt lat="31.7113600" lon="35.4323600">
<ele>-40.949997</ele>
<time>2022-12-08T11:54:33.823Z</time>
</trkpt>
<trkpt lat="31.7110900" lon="35.4326600">
<ele>-38.340000</ele>
<time>2022-12-08T11:54:33.823Z</time>
</trkpt>
<trkpt lat="31.7108700" lon="35.4326700">
<ele>-40.600002</ele>
<time>2022-12-08T11:54:33.823Z</time>
</trkpt>
<trkpt lat="31.7106900" lon="35.4328400">
<ele>-44.500000</ele>
<time>2022-12-08T11:54:33.823Z</time>
</trkpt>
<trkpt lat="31.7105800" lon="35.4333400">
<ele>-46.289997</ele>
<time>2022-12-08T11:54:33.823Z</time>
</trkpt>
<trkpt lat="31.7103600" lon="35.4334900">
<ele>-47.649998</ele>
<time>2022-12-08T11:54:33.823Z</time>
</trkpt>
<trkpt lat="31.7102800" lon="35.4336500">
<ele>-47.680000</ele>
<time>2022-12-08T11:54:33.823Z</time>
</trkpt>
<trkpt lat="31.7103600" lon="35.4342000">
<ele>-45.630001</ele>
<time>2022-12-08T11:54:33.823Z</time>
</trkpt>
<trkpt lat="31.7103600" lon="35.4346200">
<ele>-49.259998</ele>
<time>2022-12-08T11:54:33.823Z</time>
</trkpt>
<trkpt lat="31.7103100" lon="35.4351600">
<ele>-49.910000</ele>
<time>2022-12-08T11:54:33.823Z</time>
</trkpt>
<trkpt lat="31.7103200" lon="35.4354500">
<ele>-47.630001</ele>
<time>2022-12-08T11:54:33.823Z</time>
</trkpt>
<trkpt lat="31.7105100" lon="35.4357800">
<ele>-44.770000</ele>
<time>2022-12-08T11:54:33.823Z</time>
</trkpt>
<trkpt lat="31.7104600" lon="35.4361000">
<ele>-45.289997</ele>
<time>2022-12-08T11:54:33.823Z</time>
</trkpt>
<trkpt lat="31.7101700" lon="35.4364000">
<ele>-47.949997</ele>
<time>2022-12-08T11:54:33.823Z</time>
</trkpt>
<trkpt lat="31.7100200" lon="35.4367700">
<ele>-52.480000</ele>
<time>2022-12-08T11:54:33.823Z</time>
</trkpt>
<trkpt lat="31.7100500" lon="35.4371600">
<ele>-52.480000</ele>
<time>2022-12-08T11:54:33.823Z</time>
</trkpt>
<trkpt lat="31.7099400" lon="35.4373800">
<ele>-53.219997</ele>
<time>2022-12-08T11:54:33.823Z</time>
</trkpt>
<trkpt lat="31.7098800" lon="35.4376900">
<ele>-53.040001</ele>
<time>2022-12-08T11:54:33.823Z</time>
</trkpt>
<trkpt lat="31.7097200" lon="35.4379500">
<ele>-54.040001</ele>
<time>2022-12-08T11:54:33.823Z</time>
</trkpt>
<trkpt lat="31.7096700" lon="35.4389800">
<ele>-63.470001</ele>
<time>2022-12-08T11:54:33.823Z</time>
</trkpt>
<trkpt lat="31.7097000" lon="35.4392800">
<ele>-64.779999</ele>
<time>2022-12-08T11:54:33.823Z</time>
</trkpt>
<trkpt lat="31.7095200" lon="35.4395100">
<ele>-67.680000</ele>
<time>2022-12-08T11:54:33.823Z</time>
</trkpt>
<trkpt lat="31.7094900" lon="35.4398700">
<ele>-66.639999</ele>
<time>2022-12-08T11:54:33.823Z</time>
</trkpt>
<trkpt lat="31.7092600" lon="35.4406500">
<ele>-65.420006</ele>
<time>2022-12-08T11:54:33.823Z</time>
</trkpt>
<trkpt lat="31.7091400" lon="35.4408100">
<ele>-66.260002</ele>
<time>2022-12-08T11:54:33.823Z</time>
</trkpt>
<trkpt lat="31.7086500" lon="35.4411300">
<ele>-62.119999</ele>
<time>2022-12-08T11:54:33.823Z</time>
</trkpt>
<trkpt lat="31.7082600" lon="35.4415600">
<ele>-58.200001</ele>
<time>2022-12-08T11:54:33.823Z</time>
</trkpt>
<trkpt lat="31.7078700" lon="35.4419900">
<ele>-63.900002</ele>
<time>2022-12-08T11:54:33.823Z</time>
</trkpt>
<trkpt lat="31.7076900" lon="35.4420800">
<ele>-66.619995</ele>
<time>2022-12-08T11:54:33.823Z</time>
</trkpt>
<trkpt lat="31.7075400" lon="35.4425500">
<ele>-69.169998</ele>
<time>2022-12-08T11:54:33.823Z</time>
</trkpt>
<trkpt lat="31.7069900" lon="35.4429900">
<ele>-74.490005</ele>
<time>2022-12-08T11:54:33.823Z</time>
</trkpt>
<trkpt lat="31.7062500" lon="35.4431500">
<ele>-82.519997</ele>
<time>2022-12-08T11:54:33.823Z</time>
</trkpt>
<trkpt lat="31.7054100" lon="35.4430900">
<ele>-84.039993</ele>
<time>2022-12-08T11:54:33.823Z</time>
</trkpt>
<trkpt lat="31.7052000" lon="35.4437700">
<ele>-80.989998</ele>
<time>2022-12-08T11:54:33.823Z</time>
</trkpt>
<trkpt lat="31.7050900" lon="35.4439600">
<ele>-81.690002</ele>
<time>2022-12-08T11:54:33.823Z</time>
</trkpt>
<trkpt lat="31.7051100" lon="35.4446100">
<ele>-85.079994</ele>
<time>2022-12-08T11:54:33.823Z</time>
</trkpt>
<trkpt lat="31.7047800" lon="35.4450100">
<ele>-84.260002</ele>
<time>2022-12-08T11:54:33.823Z</time>
</trkpt>
<trkpt lat="31.7046700" lon="35.4450800">
<ele>-88.810005</ele>
<time>2022-12-08T11:54:33.823Z</time>
</trkpt>
<trkpt lat="31.7046000" lon="35.4451500">
<ele>-93.459999</ele>
<time>2022-12-08T11:54:33.823Z</time>
</trkpt>
<trkpt lat="31.7049900" lon="35.4447200">
<ele>-85.040001</ele>
<time>2022-12-08T11:54:33.823Z</time>
</trkpt>
<trkpt lat="31.7049600" lon="35.4440100">
<ele>-82.580002</ele>
<time>2022-12-08T11:54:33.823Z</time>
</trkpt>
<trkpt lat="31.7051500" lon="35.4434500">
<ele>-83.349998</ele>
<time>2022-12-08T11:54:33.823Z</time>
</trkpt>
<trkpt lat="31.7052500" lon="35.4433000">
<ele>-83.549995</ele>
<time>2022-12-08T11:54:33.823Z</time>
</trkpt>
<trkpt lat="31.7055600" lon="35.4431200">
<ele>-83.470001</ele>
<time>2022-12-08T11:54:33.823Z</time>
</trkpt>
<trkpt lat="31.7062000" lon="35.4431500">
<ele>-82.700005</ele>
<time>2022-12-08T11:54:33.823Z</time>
</trkpt>
<trkpt lat="31.7068400" lon="35.4430600">
<ele>-76.120003</ele>
<time>2022-12-08T11:54:33.823Z</time>
</trkpt>
<trkpt lat="31.7074400" lon="35.4426200">
<ele>-69.779999</ele>
<time>2022-12-08T11:54:33.823Z</time>
</trkpt>
<trkpt lat="31.7077200" lon="35.4420600">
<ele>-66.329994</ele>
<time>2022-12-08T11:54:33.823Z</time>
</trkpt>
<trkpt lat="31.7079300" lon="35.4417700">
<ele>-62.770000</ele>
<time>2022-12-08T11:54:33.823Z</time>
</trkpt>
<trkpt lat="31.7082700" lon="35.4415000">
<ele>-58.960003</ele>
<time>2022-12-08T11:54:33.823Z</time>
</trkpt>
<trkpt lat="31.7085900" lon="35.4411300">
<ele>-61.860001</ele>
<time>2022-12-08T11:54:33.823Z</time>
</trkpt>
<trkpt lat="31.7089800" lon="35.4409100">
<ele>-65.930000</ele>
<time>2022-12-08T11:54:33.823Z</time>
</trkpt>
<trkpt lat="31.7091600" lon="35.4406900">
<ele>-67.059998</ele>
<time>2022-12-08T11:54:33.823Z</time>
</trkpt>
<trkpt lat="31.7094200" lon="35.4398500">
<ele>-67.689995</ele>
<time>2022-12-08T11:54:33.823Z</time>
</trkpt>
<trkpt lat="31.7094400" lon="35.4395800">
<ele>-68.500000</ele>
<time>2022-12-08T11:54:33.823Z</time>
</trkpt>
<trkpt lat="31.7096500" lon="35.4393500">
<ele>-65.790001</ele>
<time>2022-12-08T11:54:33.823Z</time>
</trkpt>
<trkpt lat="31.7096600" lon="35.4387300">
<ele>-61.180000</ele>
<time>2022-12-08T11:54:33.823Z</time>
</trkpt>
<trkpt lat="31.7096700" lon="35.4381200">
<ele>-55.500000</ele>
<time>2022-12-08T11:54:33.823Z</time>
</trkpt>
<trkpt lat="31.7098500" lon="35.4377800">
<ele>-53.080002</ele>
<time>2022-12-08T11:54:33.823Z</time>
</trkpt>
<trkpt lat="31.7099100" lon="35.4374300">
<ele>-53.320000</ele>
<time>2022-12-08T11:54:33.823Z</time>
</trkpt>
<trkpt lat="31.7100300" lon="35.4372900">
<ele>-52.839996</ele>
<time>2022-12-08T11:54:33.823Z</time>
</trkpt>
<trkpt lat="31.7100000" lon="35.4367900">
<ele>-53.000004</ele>
<time>2022-12-08T11:54:33.823Z</time>
</trkpt>
<trkpt lat="31.7103500" lon="35.4363600">
<ele>-46.080002</ele>
<time>2022-12-08T11:54:33.823Z</time>
</trkpt>
<trkpt lat="31.7105100" lon="35.4358900">
<ele>-45.010002</ele>
<time>2022-12-08T11:54:33.823Z</time>
</trkpt>
<trkpt lat="31.7106300" lon="35.4357600">
<ele>-45.129997</ele>
<time>2022-12-08T11:54:33.823Z</time>
</trkpt>
<trkpt lat="31.7108200" lon="35.4357600">
<ele>-46.140003</ele>
<time>2022-12-08T11:54:33.823Z</time>
</trkpt>
<trkpt lat="31.7112800" lon="35.4361000">
<ele>-48.009998</ele>
<time>2022-12-08T11:54:33.823Z</time>
</trkpt>
<trkpt lat="31.7115900" lon="35.4364300">
<ele>-46.430000</ele>
<time>2022-12-08T11:54:33.823Z</time>
</trkpt>
<trkpt lat="31.7118600" lon="35.4366000">
<ele>-44.070000</ele>
<time>2022-12-08T11:54:33.823Z</time>
</trkpt>
<trkpt lat="31.7123400" lon="35.4370200">
<ele>-43.030003</ele>
<time>2022-12-08T11:54:33.823Z</time>
</trkpt>
<trkpt lat="31.7125600" lon="35.4374500">
<ele>-40.540001</ele>
<time>2022-12-08T11:54:33.823Z</time>
</trkpt>
<trkpt lat="31.7127600" lon="35.4376300">
<ele>-40.910000</ele>
<time>2022-12-08T11:54:33.823Z</time>
</trkpt>
<trkpt lat="31.7133300" lon="35.4376600">
<ele>-39.450001</ele>
<time>2022-12-08T11:54:33.823Z</time>
</trkpt>
<trkpt lat="31.7139000" lon="35.4376800">
<ele>-43.299999</ele>
<time>2022-12-08T11:54:33.823Z</time>
</trkpt>
<trkpt lat="31.7146300" lon="35.4375100">
<ele>-47.340000</ele>
<time>2022-12-08T11:54:33.823Z</time>
</trkpt>
<trkpt lat="31.7149600" lon="35.4375800">
<ele>-49.709999</ele>
<time>2022-12-08T11:54:33.823Z</time>
</trkpt>
<trkpt lat="31.7157400" lon="35.4373800">
<ele>-41.720001</ele>
<time>2022-12-08T11:54:33.823Z</time>
</trkpt>
<trkpt lat="31.7163100" lon="35.4374300">
<ele>-37.820000</ele>
<time>2022-12-08T11:54:33.823Z</time>
</trkpt>
<trkpt lat="31.7166400" lon="35.4373300">
<ele>-36.860001</ele>
<time>2022-12-08T11:54:33.823Z</time>
</trkpt>
<trkpt lat="31.7172800" lon="35.4368800">
<ele>-32.820000</ele>
<time>2022-12-08T11:54:33.823Z</time>
</trkpt>
<trkpt lat="31.7178400" lon="35.4369000">
<ele>-29.700001</ele>
<time>2022-12-08T11:54:33.823Z</time>
</trkpt>
<trkpt lat="31.7183000" lon="35.4367500">
<ele>-30.900000</ele>
<time>2022-12-08T11:54:33.823Z</time>
</trkpt>
<trkpt lat="31.7184900" lon="35.4368100">
<ele>-34.540001</ele>
<time>2022-12-08T11:54:33.823Z</time>
</trkpt>
<trkpt lat="31.7190700" lon="35.4371700">
<ele>-40.930000</ele>
<time>2022-12-08T11:54:33.823Z</time>
</trkpt>
<trkpt lat="31.7193500" lon="35.4377600">
<ele>-45.170002</ele>
<time>2022-12-08T11:54:33.823Z</time>
</trkpt>
<trkpt lat="31.7199100" lon="35.4376500">
<ele>-44.299999</ele>
<time>2022-12-08T11:54:33.823Z</time>
</trkpt>
<trkpt lat="31.7206300" lon="35.4381500">
<ele>-40.760002</ele>
<time>2022-12-08T11:54:33.823Z</time>
</trkpt>
<trkpt lat="31.7207900" lon="35.4381900">
<ele>-38.580002</ele>
<time>2022-12-08T11:54:33.823Z</time>
</trkpt>
<trkpt lat="31.7210100" lon="35.4380300">
<ele>-36.480000</ele>
<time>2022-12-08T11:54:33.823Z</time>
</trkpt>
<trkpt lat="31.7211800" lon="35.4379800">
<ele>-35.200001</ele>
<time>2022-12-08T11:54:33.823Z</time>
</trkpt>
<trkpt lat="31.7219600" lon="35.4382500">
<ele>-30.740000</ele>
<time>2022-12-08T11:54:33.823Z</time>
</trkpt>
<trkpt lat="31.7222200" lon="35.4382400">
<ele>-36.270000</ele>
<time>2022-12-08T11:54:33.823Z</time>
</trkpt>
<trkpt lat="31.7224800" lon="35.4382900">
<ele>-40.789997</ele>
<time>2022-12-08T11:54:33.823Z</time>
</trkpt>
<trkpt lat="31.7228500" lon="35.4382400">
<ele>-42.079998</ele>
<time>2022-12-08T11:54:33.823Z</time>
</trkpt>
<trkpt lat="31.7229300" lon="35.4383200">
<ele>-43.350002</ele>
<time>2022-12-08T11:54:33.823Z</time>
</trkpt>
<trkpt lat="31.7231600" lon="35.4383600">
<ele>-43.459999</ele>
<time>2022-12-08T11:54:33.823Z</time>
</trkpt>
<trkpt lat="31.7232300" lon="35.4384300">
<ele>-43.350002</ele>
<time>2022-12-08T11:54:33.823Z</time>
</trkpt>
<trkpt lat="31.7233700" lon="35.4383800">
<ele>-41.859997</ele>
<time>2022-12-08T11:54:33.823Z</time>
</trkpt>
<trkpt lat="31.7236200" lon="35.4385300">
<ele>-39.279999</ele>
<time>2022-12-08T11:54:33.823Z</time>
</trkpt>
<trkpt lat="31.7241500" lon="35.4385600">
<ele>-41.000000</ele>
<time>2022-12-08T11:54:33.823Z</time>
</trkpt>
<trkpt lat="31.7243600" lon="35.4388600">
<ele>-44.540001</ele>
<time>2022-12-08T11:54:33.823Z</time>
</trkpt>
<trkpt lat="31.7244200" lon="35.4391900">
<ele>-47.730000</ele>
<time>2022-12-08T11:54:33.823Z</time>
</trkpt>
<trkpt lat="31.7246000" lon="35.4396300">
<ele>-52.209999</ele>
<time>2022-12-08T11:54:33.823Z</time>
</trkpt>
<trkpt lat="31.7246500" lon="35.4399800">
<ele>-52.750000</ele>
<time>2022-12-08T11:54:33.823Z</time>
</trkpt>
<trkpt lat="31.7247700" lon="35.4402900">
<ele>-57.350002</ele>
<time>2022-12-08T11:54:33.823Z</time>
</trkpt>
<trkpt lat="31.7247400" lon="35.4407300">
<ele>-57.230000</ele>
<time>2022-12-08T11:54:33.823Z</time>
</trkpt>
<trkpt lat="31.7247900" lon="35.4409400">
<ele>-58.740002</ele>
<time>2022-12-08T11:54:33.823Z</time>
</trkpt>
<trkpt lat="31.7248900" lon="35.4411000">
<ele>-61.340000</ele>
<time>2022-12-08T11:54:33.823Z</time>
</trkpt>
<trkpt lat="31.7251500" lon="35.4412700">
<ele>-61.059998</ele>
<time>2022-12-08T11:54:33.823Z</time>
</trkpt>
<trkpt lat="31.7252900" lon="35.4415800">
<ele>-60.059998</ele>
<time>2022-12-08T11:54:33.823Z</time>
</trkpt>
<trkpt lat="31.7253200" lon="35.4418500">
<ele>-62.980003</ele>
<time>2022-12-08T11:54:33.823Z</time>
</trkpt>
<trkpt lat="31.7254100" lon="35.4419500">
<ele>-64.019997</ele>
<time>2022-12-08T11:54:33.823Z</time>
</trkpt>
<trkpt lat="31.7256000" lon="35.4421100">
<ele>-65.779999</ele>
<time>2022-12-08T11:54:33.823Z</time>
</trkpt>
<trkpt lat="31.7259900" lon="35.4422700">
<ele>-75.190002</ele>
<time>2022-12-08T11:54:33.823Z</time>
</trkpt>
<trkpt lat="31.7262000" lon="35.4428700">
<ele>-73.989998</ele>
<time>2022-12-08T11:54:33.823Z</time>
</trkpt>
<trkpt lat="31.7264600" lon="35.4432200">
<ele>-77.150002</ele>
<time>2022-12-08T11:54:33.823Z</time>
</trkpt>
<trkpt lat="31.7266700" lon="35.4433700">
<ele>-79.960007</ele>
<time>2022-12-08T11:54:33.823Z</time>
</trkpt>
<trkpt lat="31.7270000" lon="35.4434900">
<ele>-75.919998</ele>
<time>2022-12-08T11:54:33.823Z</time>
</trkpt>
<trkpt lat="31.7273200" lon="35.4441200">
<ele>-74.769997</ele>
<time>2022-12-08T11:54:33.823Z</time>
</trkpt>
<trkpt lat="31.7275900" lon="35.4443300">
<ele>-77.099998</ele>
<time>2022-12-08T11:54:33.823Z</time>
</trkpt>
<trkpt lat="31.7278500" lon="35.4443900">
<ele>-76.700005</ele>
<time>2022-12-08T11:54:33.823Z</time>
</trkpt>
<trkpt lat="31.7283800" lon="35.4446700">
<ele>-77.290001</ele>
<time>2022-12-08T11:54:33.823Z</time>
</trkpt>
<trkpt lat="31.7289200" lon="35.4448700">
<ele>-74.750000</ele>
<time>2022-12-08T11:54:33.823Z</time>
</trkpt>
<trkpt lat="31.7293100" lon="35.4451000">
<ele>-67.689995</ele>
<time>2022-12-08T11:54:33.823Z</time>
</trkpt>
<trkpt lat="31.7295700" lon="35.4451600">
<ele>-67.009995</ele>
<time>2022-12-08T11:54:33.823Z</time>
</trkpt>
<trkpt lat="31.7300900" lon="35.4450700">
<ele>-70.239998</ele>
<time>2022-12-08T11:54:33.823Z</time>
</trkpt>
<trkpt lat="31.7306000" lon="35.4452100">
<ele>-70.990005</ele>
<time>2022-12-08T11:54:33.823Z</time>
</trkpt>
<trkpt lat="31.7311000" lon="35.4453400">
<ele>-68.830002</ele>
<time>2022-12-08T11:54:33.823Z</time>
</trkpt>
<trkpt lat="31.7311900" lon="35.4455900">
<ele>-68.459999</ele>
<time>2022-12-08T11:54:33.823Z</time>
</trkpt>
<trkpt lat="31.7310800" lon="35.4460600">
<ele>-69.110001</ele>
<time>2022-12-08T11:54:33.823Z</time>
</trkpt>
<trkpt lat="31.7310500" lon="35.4466300">
<ele>-67.099998</ele>
<time>2022-12-08T11:54:33.823Z</time>
</trkpt>
<trkpt lat="31.7311600" lon="35.4473100">
<ele>-67.900002</ele>
<time>2022-12-08T11:54:33.823Z</time>
</trkpt>
<trkpt lat="31.7312600" lon="35.4479900">
<ele>-62.649998</ele>
<time>2022-12-08T11:54:33.823Z</time>
</trkpt>
<trkpt lat="31.7310800" lon="35.4483100">
<ele>-60.200001</ele>
<time>2022-12-08T11:54:33.823Z</time>
</trkpt>
<trkpt lat="31.7305700" lon="35.4488400">
<ele>-66.029999</ele>
<time>2022-12-08T11:54:33.823Z</time>
</trkpt>
<trkpt lat="31.7303700" lon="35.4489800">
<ele>-65.409996</ele>
<time>2022-12-08T11:54:33.823Z</time>
</trkpt>
<trkpt lat="31.7300800" lon="35.4490800">
<ele>-66.790001</ele>
<time>2022-12-08T11:54:33.823Z</time>
</trkpt>
<trkpt lat="31.7297500" lon="35.4490800">
<ele>-67.630005</ele>
<time>2022-12-08T11:54:33.823Z</time>
</trkpt>
<trkpt lat="31.7293800" lon="35.4489800">
<ele>-71.269997</ele>
<time>2022-12-08T11:54:33.823Z</time>
</trkpt>
<trkpt lat="31.7290200" lon="35.4490600">
<ele>-75.930000</ele>
<time>2022-12-08T11:54:33.823Z</time>
</trkpt>
<trkpt lat="31.7289400" lon="35.4492200">
<ele>-79.400002</ele>
<time>2022-12-08T11:54:33.823Z</time>
</trkpt>
<trkpt lat="31.7292600" lon="35.4490300">
<ele>-73.019997</ele>
<time>2022-12-08T11:54:33.823Z</time>
</trkpt>
<trkpt lat="31.7297900" lon="35.4491000">
<ele>-67.639999</ele>
<time>2022-12-08T11:54:33.823Z</time>
</trkpt>
<trkpt lat="31.7302500" lon="35.4490200">
<ele>-64.989998</ele>
<time>2022-12-08T11:54:33.823Z</time>
</trkpt>
<trkpt lat="31.7304200" lon="35.4489000">
<ele>-64.760002</ele>
<time>2022-12-08T11:54:33.823Z</time>
</trkpt>
<trkpt lat="31.7306600" lon="35.4485600">
<ele>-61.930000</ele>
<time>2022-12-08T11:54:33.823Z</time>
</trkpt>
<trkpt lat="31.7310300" lon="35.4482300">
<ele>-60.660000</ele>
<time>2022-12-08T11:54:33.823Z</time>
</trkpt>
<trkpt lat="31.7311200" lon="35.4480600">
<ele>-61.049999</ele>
<time>2022-12-08T11:54:33.823Z</time>
</trkpt>
<trkpt lat="31.7311400" lon="35.4478400">
<ele>-63.459999</ele>
<time>2022-12-08T11:54:33.823Z</time>
</trkpt>
<trkpt lat="31.7310600" lon="35.4471800">
<ele>-67.839996</ele>
<time>2022-12-08T11:54:33.823Z</time>
</trkpt>
<trkpt lat="31.7309700" lon="35.4465100">
<ele>-67.279999</ele>
<time>2022-12-08T11:54:33.823Z</time>
</trkpt>
<trkpt lat="31.7310900" lon="35.4459900">
<ele>-69.430000</ele>
<time>2022-12-08T11:54:33.823Z</time>
</trkpt>
<trkpt lat="31.7312000" lon="35.4454700">
<ele>-68.730003</ele>
<time>2022-12-08T11:54:33.823Z</time>
</trkpt>
<trkpt lat="31.7313600" lon="35.4454400">
<ele>-69.680000</ele>
<time>2022-12-08T11:54:33.823Z</time>
</trkpt>
<trkpt lat="31.7316500" lon="35.4452600">
<ele>-72.200005</ele>
<time>2022-12-08T11:54:33.823Z</time>
</trkpt>
<trkpt lat="31.7322000" lon="35.4451200">
<ele>-80.769997</ele>
<time>2022-12-08T11:54:33.823Z</time>
</trkpt>
<trkpt lat="31.7327900" lon="35.4450800">
<ele>-82.220001</ele>
<time>2022-12-08T11:54:33.823Z</time>
</trkpt>
<trkpt lat="31.7331600" lon="35.4448900">
<ele>-88.959999</ele>
<time>2022-12-08T11:54:33.823Z</time>
</trkpt>
<trkpt lat="31.7338200" lon="35.4447800">
<ele>-98.659996</ele>
<time>2022-12-08T11:54:33.823Z</time>
</trkpt>
<trkpt lat="31.7340200" lon="35.4446300">
<ele>-100.279999</ele>
<time>2022-12-08T11:54:33.823Z</time>
</trkpt>
<trkpt lat="31.7340800" lon="35.4446600">
<ele>-100.830002</ele>
<time>2022-12-08T11:54:33.823Z</time>
</trkpt>
<trkpt lat="31.7342500" lon="35.4446100">
<ele>-100.169998</ele>
<time>2022-12-08T11:54:33.823Z</time>
</trkpt>
<trkpt lat="31.7343000" lon="35.4443800">
<ele>-97.259995</ele>
<time>2022-12-08T11:54:33.823Z</time>
</trkpt>
<trkpt lat="31.7342400" lon="35.4439400">
<ele>-95.419998</ele>
<time>2022-12-08T11:54:33.823Z</time>
</trkpt>
<trkpt lat="31.7343300" lon="35.4436100">
<ele>-93.240005</ele>
<time>2022-12-08T11:54:33.823Z</time>
</trkpt>
<trkpt lat="31.7346600" lon="35.4431800">
<ele>-90.320000</ele>
<time>2022-12-08T11:54:33.823Z</time>
</trkpt>
<trkpt lat="31.7347300" lon="35.4429200">
<ele>-89.900002</ele>
<time>2022-12-08T11:54:33.823Z</time>
</trkpt>
<trkpt lat="31.7349800" lon="35.4425900">
<ele>-86.919998</ele>
<time>2022-12-08T11:54:33.823Z</time>
</trkpt>
<trkpt lat="31.7351300" lon="35.4422500">
<ele>-87.820000</ele>
<time>2022-12-08T11:54:33.823Z</time>
</trkpt>
<trkpt lat="31.7353300" lon="35.4420300">
<ele>-89.250000</ele>
<time>2022-12-08T11:54:33.823Z</time>
</trkpt>
<trkpt lat="31.7355500" lon="35.4419500">
<ele>-87.079994</ele>
<time>2022-12-08T11:54:33.823Z</time>
</trkpt>
<trkpt lat="31.7358200" lon="35.4414600">
<ele>-88.350006</ele>
<time>2022-12-08T11:54:33.823Z</time>
</trkpt>
<trkpt lat="31.7362200" lon="35.4410000">
<ele>-85.109993</ele>
<time>2022-12-08T11:54:33.823Z</time>
</trkpt>
<trkpt lat="31.7364700" lon="35.4405400">
<ele>-86.750000</ele>
<time>2022-12-08T11:54:33.823Z</time>
</trkpt>
<trkpt lat="31.7365900" lon="35.4400700">
<ele>-87.089996</ele>
<time>2022-12-08T11:54:33.823Z</time>
</trkpt>
<trkpt lat="31.7373600" lon="35.4395500">
<ele>-84.809998</ele>
<time>2022-12-08T11:54:33.823Z</time>
</trkpt>
<trkpt lat="31.7375500" lon="35.4392300">
<ele>-86.960007</ele>
<time>2022-12-08T11:54:33.823Z</time>
</trkpt>
<trkpt lat="31.7379200" lon="35.4390900">
<ele>-87.750000</ele>
<time>2022-12-08T11:54:33.823Z</time>
</trkpt>
<trkpt lat="31.7382300" lon="35.4387400">
<ele>-91.840004</ele>
<time>2022-12-08T11:54:33.823Z</time>
</trkpt>
<trkpt lat="31.7381900" lon="35.4385600">
<ele>-93.919998</ele>
<time>2022-12-08T11:54:33.823Z</time>
</trkpt>
<trkpt lat="31.7379900" lon="35.4383800">
<ele>-96.620003</ele>
<time>2022-12-08T11:54:33.823Z</time>
</trkpt>
<trkpt lat="31.7379200" lon="35.4382200">
<ele>-98.629997</ele>
<time>2022-12-08T11:54:33.823Z</time>
</trkpt>
<trkpt lat="31.7378400" lon="35.4378100">
<ele>-103.650002</ele>
<time>2022-12-08T11:54:33.823Z</time>
</trkpt>
<trkpt lat="31.7378600" lon="35.4372900">
<ele>-103.760002</ele>
<time>2022-12-08T11:54:33.823Z</time>
</trkpt>
<trkpt lat="31.7383000" lon="35.4370100">
<ele>-106.669998</ele>
<time>2022-12-08T11:54:33.823Z</time>
</trkpt>
<trkpt lat="31.7387300" lon="35.4367200">
<ele>-99.950005</ele>
<time>2022-12-08T11:54:33.823Z</time>
</trkpt>
<trkpt lat="31.7391200" lon="35.4366200">
<ele>-98.169998</ele>
<time>2022-12-08T11:54:33.823Z</time>
</trkpt>
<trkpt lat="31.7393200" lon="35.4365100">
<ele>-95.779999</ele>
<time>2022-12-08T11:54:33.823Z</time>
</trkpt>
<trkpt lat="31.7401300" lon="35.4364300">
<ele>-91.000000</ele>
<time>2022-12-08T11:54:33.823Z</time>
</trkpt>
<trkpt lat="31.7401700" lon="35.4363900">
<ele>-91.230003</ele>
<time>2022-12-08T11:54:33.823Z</time>
</trkpt>
<trkpt lat="31.7405200" lon="35.4365900">
<ele>-100.570000</ele>
<time>2022-12-08T11:54:33.823Z</time>
</trkpt>
<trkpt lat="31.7407500" lon="35.4369700">
<ele>-105.059998</ele>
<time>2022-12-08T11:54:33.823Z</time>
</trkpt>
<trkpt lat="31.7409100" lon="35.4376300">
<ele>-106.059998</ele>
<time>2022-12-08T11:54:33.823Z</time>
</trkpt>
<trkpt lat="31.7408200" lon="35.4382500">
<ele>-108.689995</ele>
<time>2022-12-08T11:54:33.823Z</time>
</trkpt>
<trkpt lat="31.7411300" lon="35.4387200">
<ele>-103.770004</ele>
<time>2022-12-08T11:54:33.823Z</time>
</trkpt>
<trkpt lat="31.7411600" lon="35.4393600">
<ele>-102.419998</ele>
<time>2022-12-08T11:54:33.823Z</time>
</trkpt>
<trkpt lat="31.7412400" lon="35.4395900">
<ele>-102.619995</ele>
<time>2022-12-08T11:54:33.823Z</time>
</trkpt>
<trkpt lat="31.7414500" lon="35.4399000">
<ele>-102.960007</ele>
<time>2022-12-08T11:54:33.823Z</time>
</trkpt>
<trkpt lat="31.7419300" lon="35.4402300">
<ele>-93.110001</ele>
<time>2022-12-08T11:54:33.823Z</time>
</trkpt>
<trkpt lat="31.7423800" lon="35.4410600">
<ele>-93.919998</ele>
<time>2022-12-08T11:54:33.823Z</time>
</trkpt>
<trkpt lat="31.7425900" lon="35.4413000">
<ele>-92.409996</ele>
<time>2022-12-08T11:54:33.823Z</time>
</trkpt>
<trkpt lat="31.7428900" lon="35.4415500">
<ele>-95.929993</ele>
<time>2022-12-08T11:54:33.823Z</time>
</trkpt>
<trkpt lat="31.7433700" lon="35.4417900">
<ele>-99.220001</ele>
<time>2022-12-08T11:54:33.823Z</time>
</trkpt>
<trkpt lat="31.7436200" lon="35.4420400">
<ele>-102.360001</ele>
<time>2022-12-08T11:54:33.823Z</time>
</trkpt>
<trkpt lat="31.7437300" lon="35.4422300">
<ele>-101.779999</ele>
<time>2022-12-08T11:54:33.823Z</time>
</trkpt>
<trkpt lat="31.7438900" lon="35.4428500">
<ele>-99.000000</ele>
<time>2022-12-08T11:54:33.823Z</time>
</trkpt>
<trkpt lat="31.7440700" lon="35.4431900">
<ele>-99.480003</ele>
<time>2022-12-08T11:54:33.823Z</time>
</trkpt>
<trkpt lat="31.7440700" lon="35.4434600">
<ele>-99.250000</ele>
<time>2022-12-08T11:54:33.823Z</time>
</trkpt>
<trkpt lat="31.7442100" lon="35.4438400">
<ele>-95.099998</ele>
<time>2022-12-08T11:54:33.823Z</time>
</trkpt>
<trkpt lat="31.7442500" lon="35.4444900">
<ele>-92.800003</ele>
<time>2022-12-08T11:54:33.823Z</time>
</trkpt>
<trkpt lat="31.7443400" lon="35.4446600">
<ele>-93.339996</ele>
<time>2022-12-08T11:54:33.823Z</time>
</trkpt>
<trkpt lat="31.7444900" lon="35.4447600">
<ele>-93.690002</ele>
<time>2022-12-08T11:54:33.823Z</time>
</trkpt>
<trkpt lat="31.7445400" lon="35.4449900">
<ele>-94.600006</ele>
<time>2022-12-08T11:54:33.823Z</time>
</trkpt>
<trkpt lat="31.7446700" lon="35.4451700">
<ele>-94.570007</ele>
<time>2022-12-08T11:54:33.823Z</time>
</trkpt>
<trkpt lat="31.7451000" lon="35.4454100">
<ele>-89.889999</ele>
<time>2022-12-08T11:54:33.823Z</time>
</trkpt>
<trkpt lat="31.7455400" lon="35.4456600">
<ele>-87.880005</ele>
<time>2022-12-08T11:54:33.823Z</time>
</trkpt>
<trkpt lat="31.7459700" lon="35.4459000">
<ele>-86.230003</ele>
<time>2022-12-08T11:54:33.823Z</time>
</trkpt>
<trkpt lat="31.7467300" lon="35.4459000">
<ele>-80.900002</ele>
<time>2022-12-08T11:54:33.823Z</time>
</trkpt>
<trkpt lat="31.7473200" lon="35.4459700">
<ele>-78.800003</ele>
<time>2022-12-08T11:54:33.823Z</time>
</trkpt>
<trkpt lat="31.7479100" lon="35.4460400">
<ele>-80.229996</ele>
<time>2022-12-08T11:54:33.823Z</time>
</trkpt>
<trkpt lat="31.7480400" lon="35.4461100">
<ele>-80.940002</ele>
<time>2022-12-08T11:54:33.823Z</time>
</trkpt>
<trkpt lat="31.7484700" lon="35.4466600">
<ele>-86.459999</ele>
<time>2022-12-08T11:54:33.823Z</time>
</trkpt>
<trkpt lat="31.7488900" lon="35.4472000">
<ele>-88.830002</ele>
<time>2022-12-08T11:54:33.823Z</time>
</trkpt>
<trkpt lat="31.7489000" lon="35.4475200">
<ele>-87.959999</ele>
<time>2022-12-08T11:54:33.823Z</time>
</trkpt>
<trkpt lat="31.7492000" lon="35.4480800">
<ele>-85.610001</ele>
<time>2022-12-08T11:54:33.823Z</time>
</trkpt>
<trkpt lat="31.7495800" lon="35.4483600">
<ele>-86.050003</ele>
<time>2022-12-08T11:54:33.823Z</time>
</trkpt>
<trkpt lat="31.7498100" lon="35.4484700">
<ele>-88.020004</ele>
<time>2022-12-08T11:54:33.823Z</time>
</trkpt>
<trkpt lat="31.7499900" lon="35.4486900">
<ele>-88.589996</ele>
<time>2022-12-08T11:54:33.823Z</time>
</trkpt>
<trkpt lat="31.7501000" lon="35.4491200">
<ele>-91.550003</ele>
<time>2022-12-08T11:54:33.823Z</time>
</trkpt>
<trkpt lat="31.7502900" lon="35.4494100">
<ele>-93.870003</ele>
<time>2022-12-08T11:54:33.823Z</time>
</trkpt>
<trkpt lat="31.7508600" lon="35.4496700">
<ele>-97.360001</ele>
<time>2022-12-08T11:54:33.823Z</time>
</trkpt>
<trkpt lat="31.7511700" lon="35.4496400">
<ele>-97.879997</ele>
<time>2022-12-08T11:54:33.823Z</time>
</trkpt>
<trkpt lat="31.7513400" lon="35.4497700">
<ele>-96.989998</ele>
<time>2022-12-08T11:54:33.823Z</time>
</trkpt>
<trkpt lat="31.7517300" lon="35.4498200">
<ele>-89.900002</ele>
<time>2022-12-08T11:54:33.823Z</time>
</trkpt>
<trkpt lat="31.7519900" lon="35.4497800">
<ele>-88.650002</ele>
<time>2022-12-08T11:54:33.823Z</time>
</trkpt>
<trkpt lat="31.7523700" lon="35.4496200">
<ele>-89.110001</ele>
<time>2022-12-08T11:54:33.823Z</time>
</trkpt>
<trkpt lat="31.7527900" lon="35.4496600">
<ele>-86.709999</ele>
<time>2022-12-08T11:54:33.823Z</time>
</trkpt>
<trkpt lat="31.7530200" lon="35.4497900">
<ele>-86.099998</ele>
<time>2022-12-08T11:54:33.823Z</time>
</trkpt>
<trkpt lat="31.7533000" lon="35.4501100">
<ele>-84.139999</ele>
<time>2022-12-08T11:54:33.823Z</time>
</trkpt>
<trkpt lat="31.7537400" lon="35.4504000">
<ele>-82.090004</ele>
<time>2022-12-08T11:54:33.823Z</time>
</trkpt>
<trkpt lat="31.7543700" lon="35.4505700">
<ele>-84.060005</ele>
<time>2022-12-08T11:54:33.823Z</time>
</trkpt>
<trkpt lat="31.7549900" lon="35.4507400">
<ele>-90.099998</ele>
<time>2022-12-08T11:54:33.823Z</time>
</trkpt>
<trkpt lat="31.7554000" lon="35.4510700">
<ele>-90.749992</ele>
<time>2022-12-08T11:54:33.823Z</time>
</trkpt>
<trkpt lat="31.7558000" lon="35.4513900">
<ele>-94.880005</ele>
<time>2022-12-08T11:54:33.823Z</time>
</trkpt>
<trkpt lat="31.7563500" lon="35.4515500">
<ele>-96.919998</ele>
<time>2022-12-08T11:54:33.823Z</time>
</trkpt>
<trkpt lat="31.7568600" lon="35.4517800">
<ele>-96.629997</ele>
<time>2022-12-08T11:54:33.823Z</time>
</trkpt>
<trkpt lat="31.7570600" lon="35.4519600">
<ele>-98.449997</ele>
<time>2022-12-08T11:54:33.823Z</time>
</trkpt>
<trkpt lat="31.7573700" lon="35.4518400">
<ele>-96.250008</ele>
<time>2022-12-08T11:54:33.823Z</time>
</trkpt>
<trkpt lat="31.7577100" lon="35.4520400">
<ele>-95.599998</ele>
<time>2022-12-08T11:54:33.823Z</time>
</trkpt>
<trkpt lat="31.7578700" lon="35.4518900">
<ele>-94.989998</ele>
<time>2022-12-08T11:54:33.823Z</time>
</trkpt>
<trkpt lat="31.7586100" lon="35.4516300">
<ele>-85.419998</ele>
<time>2022-12-08T11:54:33.823Z</time>
</trkpt>
<trkpt lat="31.7591200" lon="35.4516100">
<ele>-82.909996</ele>
<time>2022-12-08T11:54:33.823Z</time>
</trkpt>
<trkpt lat="31.7596200" lon="35.4515900">
<ele>-83.940002</ele>
<time>2022-12-08T11:54:33.823Z</time>
</trkpt>
<trkpt lat="31.7600300" lon="35.4515800">
<ele>-77.630005</ele>
<time>2022-12-08T11:54:33.823Z</time>
</trkpt>
<trkpt lat="31.7602400" lon="35.4516000">
<ele>-77.860001</ele>
<time>2022-12-08T11:54:33.823Z</time>
</trkpt>
<trkpt lat="31.7610600" lon="35.4519000">
<ele>-70.739998</ele>
<time>2022-12-08T11:54:33.823Z</time>
</trkpt>
<trkpt lat="31.7616000" lon="35.4522100">
<ele>-71.400002</ele>
<time>2022-12-08T11:54:33.823Z</time>
</trkpt>
<trkpt lat="31.7622300" lon="35.4523700">
<ele>-71.480003</ele>
<time>2022-12-08T11:54:33.823Z</time>
</trkpt>
<trkpt lat="31.7627500" lon="35.4524000">
<ele>-66.939995</ele>
<time>2022-12-08T11:54:33.823Z</time>
</trkpt>
<trkpt lat="31.7633000" lon="35.4526000">
<ele>-60.449997</ele>
<time>2022-12-08T11:54:33.823Z</time>
</trkpt>
<trkpt lat="31.7639000" lon="35.4526200">
<ele>-60.490002</ele>
<time>2022-12-08T11:54:33.823Z</time>
</trkpt>
<trkpt lat="31.7642600" lon="35.4525500">
<ele>-58.149998</ele>
<time>2022-12-08T11:54:33.823Z</time>
</trkpt>
<trkpt lat="31.7647300" lon="35.4526000">
<ele>-57.399998</ele>
<time>2022-12-08T11:54:33.823Z</time>
</trkpt>
<trkpt lat="31.7653300" lon="35.4525200">
<ele>-56.529999</ele>
<time>2022-12-08T11:54:33.823Z</time>
</trkpt>
<trkpt lat="31.7659300" lon="35.4524400">
<ele>-58.360001</ele>
<time>2022-12-08T11:54:33.823Z</time>
</trkpt>
<trkpt lat="31.7663000" lon="35.4522800">
<ele>-58.490002</ele>
<time>2022-12-08T11:54:33.823Z</time>
</trkpt>
<trkpt lat="31.7669500" lon="35.4524400">
<ele>-58.599998</ele>
<time>2022-12-08T11:54:33.823Z</time>
</trkpt>
<trkpt lat="31.7671800" lon="35.4523800">
<ele>-60.079998</ele>
<time>2022-12-08T11:54:33.823Z</time>
</trkpt>
<trkpt lat="31.7676200" lon="35.4519500">
<ele>-62.980003</ele>
<time>2022-12-08T11:54:33.823Z</time>
</trkpt>
<trkpt lat="31.7683500" lon="35.4515600">
<ele>-71.000000</ele>
<time>2022-12-08T11:54:33.823Z</time>
</trkpt>
<trkpt lat="31.7686200" lon="35.4513200">
<ele>-71.239998</ele>
<time>2022-12-08T11:54:33.823Z</time>
</trkpt>
<trkpt lat="31.7689800" lon="35.4511600">
<ele>-70.849998</ele>
<time>2022-12-08T11:54:33.823Z</time>
</trkpt>
<trkpt lat="31.7691100" lon="35.4507400">
<ele>-66.590004</ele>
<time>2022-12-08T11:54:33.823Z</time>
</trkpt>
<trkpt lat="31.7692200" lon="35.4507100">
<ele>-65.479996</ele>
<time>2022-12-08T11:54:33.823Z</time>
</trkpt>
<trkpt lat="31.7696600" lon="35.4508600">
<ele>-68.540001</ele>
<time>2022-12-08T11:54:33.823Z</time>
</trkpt>
<trkpt lat="31.7700400" lon="35.4505100">
<ele>-67.660004</ele>
<time>2022-12-08T11:54:33.823Z</time>
</trkpt>
<trkpt lat="31.7702000" lon="35.4504600">
<ele>-68.940002</ele>
<time>2022-12-08T11:54:33.823Z</time>
</trkpt>
<trkpt lat="31.7703400" lon="35.4505600">
<ele>-71.650002</ele>
<time>2022-12-08T11:54:33.823Z</time>
</trkpt>
<trkpt lat="31.7705100" lon="35.4508600">
<ele>-71.590004</ele>
<time>2022-12-08T11:54:33.823Z</time>
</trkpt>
<trkpt lat="31.7707400" lon="35.4514400">
<ele>-72.910004</ele>
<time>2022-12-08T11:54:33.823Z</time>
</trkpt>
<trkpt lat="31.7709600" lon="35.4520200">
<ele>-75.220001</ele>
<time>2022-12-08T11:54:33.823Z</time>
</trkpt>
<trkpt lat="31.7708400" lon="35.4515800">
<ele>-73.059998</ele>
<time>2022-12-08T11:54:33.823Z</time>
</trkpt>
<trkpt lat="31.7705400" lon="35.4508900">
<ele>-71.699997</ele>
<time>2022-12-08T11:54:33.823Z</time>
</trkpt>
<trkpt lat="31.7705300" lon="35.4505100">
<ele>-73.830002</ele>
<time>2022-12-08T11:54:33.823Z</time>
</trkpt>
<trkpt lat="31.7704600" lon="35.4504000">
<ele>-72.760002</ele>
<time>2022-12-08T11:54:33.823Z</time>
</trkpt>
<trkpt lat="31.7706500" lon="35.4502600">
<ele>-75.699997</ele>
<time>2022-12-08T11:54:33.823Z</time>
</trkpt>
<trkpt lat="31.7707400" lon="35.4497500">
<ele>-79.090004</ele>
<time>2022-12-08T11:54:33.823Z</time>
</trkpt>
<trkpt lat="31.7712900" lon="35.4493400">
<ele>-90.699997</ele>
<time>2022-12-08T11:54:33.823Z</time>
</trkpt>
<trkpt lat="31.7716900" lon="35.4494500">
<ele>-97.070000</ele>
<time>2022-12-08T11:54:33.823Z</time>
</trkpt>
<trkpt lat="31.7723100" lon="35.4494600">
<ele>-101.280006</ele>
<time>2022-12-08T11:54:33.823Z</time>
</trkpt>
<trkpt lat="31.7727200" lon="35.4496400">
<ele>-110.859993</ele>
<time>2022-12-08T11:54:33.823Z</time>
</trkpt>
<trkpt lat="31.7734100" lon="35.4495400">
<ele>-126.169998</ele>
<time>2022-12-08T11:54:33.823Z</time>
</trkpt>
<trkpt lat="31.7738300" lon="35.4490800">
<ele>-136.699997</ele>
<time>2022-12-08T11:54:33.823Z</time>
</trkpt>
<trkpt lat="31.7738900" lon="35.4488900">
<ele>-135.059998</ele>
<time>2022-12-08T11:54:33.823Z</time>
</trkpt>
<trkpt lat="31.7741200" lon="35.4487000">
<ele>-139.880005</ele>
<time>2022-12-08T11:54:33.823Z</time>
</trkpt>
<trkpt lat="31.7743600" lon="35.4479400">
<ele>-139.800003</ele>
<time>2022-12-08T11:54:33.823Z</time>
</trkpt>
<trkpt lat="31.7744400" lon="35.4478400">
<ele>-141.869995</ele>
<time>2022-12-08T11:54:33.823Z</time>
</trkpt>
<trkpt lat="31.7746900" lon="35.4478100">
<ele>-146.419998</ele>
<time>2022-12-08T11:54:33.823Z</time>
</trkpt>
<trkpt lat="31.7751400" lon="35.4475200">
<ele>-151.059998</ele>
<time>2022-12-08T11:54:33.823Z</time>
</trkpt>
<trkpt lat="31.7753600" lon="35.4475300">
<ele>-153.819992</ele>
<time>2022-12-08T11:54:33.823Z</time>
</trkpt>
<trkpt lat="31.7754000" lon="35.4474700">
<ele>-154.250000</ele>
<time>2022-12-08T11:54:33.823Z</time>
</trkpt>
<trkpt lat="31.7755200" lon="35.4474700">
<ele>-154.389999</ele>
<time>2022-12-08T11:54:33.823Z</time>
</trkpt>
<trkpt lat="31.7757300" lon="35.4473400">
<ele>-156.569992</ele>
<time>2022-12-08T11:54:33.823Z</time>
</trkpt>
<trkpt lat="31.7759700" lon="35.4474100">
<ele>-158.779999</ele>
<time>2022-12-08T11:54:33.823Z</time>
</trkpt>
<trkpt lat="31.7760600" lon="35.4473800">
<ele>-160.600006</ele>
<time>2022-12-08T11:54:33.823Z</time>
</trkpt>
<trkpt lat="31.7760400" lon="35.4474700">
<ele>-160.209991</ele>
<time>2022-12-08T11:54:33.823Z</time>
</trkpt>
<trkpt lat="31.7761500" lon="35.4476900">
<ele>-164.039993</ele>
<time>2022-12-08T11:54:33.823Z</time>
</trkpt>
<trkpt lat="31.7761500" lon="35.4476900">
<ele>-164.039993</ele>
<time>2022-12-08T11:54:33.823Z</time>
</trkpt>
<trkpt lat="31.7761500" lon="35.4476900">
<ele>-164.039993</ele>
<time>2022-12-08T11:54:33.823Z</time>
</trkpt>
<trkpt lat="31.7762000" lon="35.4478000">
<ele>-166.119995</ele>
<time>2022-12-08T11:54:33.823Z</time>
</trkpt>
<trkpt lat="31.7762400" lon="35.4479000">
<ele>-167.200012</ele>
<time>2022-12-08T11:54:33.823Z</time>
</trkpt>
<trkpt lat="31.7763300" lon="35.4480300">
<ele>-169.970001</ele>
<time>2022-12-08T11:54:33.823Z</time>
</trkpt>
<trkpt lat="31.7765000" lon="35.4481900">
<ele>-173.750015</ele>
<time>2022-12-08T11:54:33.823Z</time>
</trkpt>
<trkpt lat="31.7765400" lon="35.4482700">
<ele>-174.039993</ele>
<time>2022-12-08T11:54:33.823Z</time>
</trkpt>
<trkpt lat="31.7766100" lon="35.4486600">
<ele>-169.160004</ele>
<time>2022-12-08T11:54:33.823Z</time>
</trkpt>
<trkpt lat="31.7767300" lon="35.4488900">
<ele>-171.970001</ele>
<time>2022-12-08T11:54:33.823Z</time>
</trkpt>
<trkpt lat="31.7768000" lon="35.4489800">
<ele>-175.099991</ele>
<time>2022-12-08T11:54:33.823Z</time>
</trkpt>
<trkpt lat="31.7768600" lon="35.4490300">
<ele>-177.500000</ele>
<time>2022-12-08T11:54:33.823Z</time>
</trkpt>
<trkpt lat="31.7771400" lon="35.4491800">
<ele>-184.979996</ele>
<time>2022-12-08T11:54:33.823Z</time>
</trkpt>
<trkpt lat="31.7772800" lon="35.4493000">
<ele>-188.009995</ele>
<time>2022-12-08T11:54:33.823Z</time>
</trkpt>
<trkpt lat="31.7773300" lon="35.4493900">
<ele>-188.419998</ele>
<time>2022-12-08T11:54:33.823Z</time>
</trkpt>
<trkpt lat="31.7773900" lon="35.4496300">
<ele>-189.540009</ele>
<time>2022-12-08T11:54:33.823Z</time>
</trkpt>
<trkpt lat="31.7774100" lon="35.4497100">
<ele>-189.940002</ele>
<time>2022-12-08T11:54:33.823Z</time>
</trkpt>
<trkpt lat="31.7775900" lon="35.4497200">
<ele>-191.610001</ele>
<time>2022-12-08T11:54:33.823Z</time>
</trkpt>
<trkpt lat="31.7776500" lon="35.4497500">
<ele>-192.889999</ele>
<time>2022-12-08T11:54:33.823Z</time>
</trkpt>
<trkpt lat="31.7777100" lon="35.4498500">
<ele>-194.460007</ele>
<time>2022-12-08T11:54:33.823Z</time>
</trkpt>
<trkpt lat="31.7777200" lon="35.4500300">
<ele>-195.509995</ele>
<time>2022-12-08T11:54:33.823Z</time>
</trkpt>
<trkpt lat="31.7776900" lon="35.4502600">
<ele>-196.279999</ele>
<time>2022-12-08T11:54:33.823Z</time>
</trkpt>
<trkpt lat="31.7777300" lon="35.4503900">
<ele>-199.150009</ele>
<time>2022-12-08T11:54:33.823Z</time>
</trkpt>
<trkpt lat="31.7779500" lon="35.4504500">
<ele>-201.040009</ele>
<time>2022-12-08T11:54:33.823Z</time>
</trkpt>
<trkpt lat="31.7780100" lon="35.4505100">
<ele>-201.729996</ele>
<time>2022-12-08T11:54:33.823Z</time>
</trkpt>
<trkpt lat="31.7781400" lon="35.4508800">
<ele>-203.559998</ele>
<time>2022-12-08T11:54:33.823Z</time>
</trkpt>
<trkpt lat="31.7783500" lon="35.4513000">
<ele>-209.399994</ele>
<time>2022-12-08T11:54:33.823Z</time>
</trkpt>
<trkpt lat="31.7784400" lon="35.4514100">
<ele>-210.840012</ele>
<time>2022-12-08T11:54:33.823Z</time>
</trkpt>
<trkpt lat="31.7787300" lon="35.4516400">
<ele>-213.490005</ele>
<time>2022-12-08T11:54:33.823Z</time>
</trkpt>
<trkpt lat="31.7789600" lon="35.4517700">
<ele>-215.489990</ele>
<time>2022-12-08T11:54:33.823Z</time>
</trkpt>
<trkpt lat="31.7792300" lon="35.4518800">
<ele>-215.520004</ele>
<time>2022-12-08T11:54:33.823Z</time>
</trkpt>
<trkpt lat="31.7794200" lon="35.4519100">
<ele>-215.290009</ele>
<time>2022-12-08T11:54:33.823Z</time>
</trkpt>
<trkpt lat="31.7795200" lon="35.4519000">
<ele>-215.000000</ele>
<time>2022-12-08T11:54:33.823Z</time>
</trkpt>
<trkpt lat="31.7795900" lon="35.4518800">
<ele>-214.820007</ele>
<time>2022-12-08T11:54:33.823Z</time>
</trkpt>
<trkpt lat="31.7796700" lon="35.4518200">
<ele>-214.719986</ele>
<time>2022-12-08T11:54:33.823Z</time>
</trkpt>
<trkpt lat="31.7797400" lon="35.4517500">
<ele>-214.590012</ele>
<time>2022-12-08T11:54:33.823Z</time>
</trkpt>
<trkpt lat="31.7798800" lon="35.4514900">
<ele>-211.590012</ele>
<time>2022-12-08T11:54:33.823Z</time>
</trkpt>
<trkpt lat="31.7799600" lon="35.4512700">
<ele>-209.919998</ele>
<time>2022-12-08T11:54:33.823Z</time>
</trkpt>
<trkpt lat="31.7800200" lon="35.4510200">
<ele>-210.319992</ele>
<time>2022-12-08T11:54:33.823Z</time>
</trkpt>
<trkpt lat="31.7800600" lon="35.4507800">
<ele>-207.370010</ele>
<time>2022-12-08T11:54:33.823Z</time>
</trkpt>
<trkpt lat="31.7802100" lon="35.4504300">
<ele>-202.059998</ele>
<time>2022-12-08T11:54:33.823Z</time>
</trkpt>
<trkpt lat="31.7805100" lon="35.4499200">
<ele>-196.930008</ele>
<time>2022-12-08T11:54:33.823Z</time>
</trkpt>
<trkpt lat="31.7810600" lon="35.4492500">
<ele>-188.759995</ele>
<time>2022-12-08T11:54:33.823Z</time>
</trkpt>
<trkpt lat="31.7811200" lon="35.4491200">
<ele>-186.489990</ele>
<time>2022-12-08T11:54:33.823Z</time>
</trkpt>
<trkpt lat="31.7812400" lon="35.4486600">
<ele>-185.780014</ele>
<time>2022-12-08T11:54:33.823Z</time>
</trkpt>
<trkpt lat="31.7813100" lon="35.4480500">
<ele>-188.990005</ele>
<time>2022-12-08T11:54:33.823Z</time>
</trkpt>
<trkpt lat="31.7813100" lon="35.4478900">
<ele>-188.080002</ele>
<time>2022-12-08T11:54:33.823Z</time>
</trkpt>
<trkpt lat="31.7812800" lon="35.4478100">
<ele>-186.590012</ele>
<time>2022-12-08T11:54:33.823Z</time>
</trkpt>
<trkpt lat="31.7812500" lon="35.4477300">
<ele>-185.240005</ele>
<time>2022-12-08T11:54:33.823Z</time>
</trkpt>
<trkpt lat="31.7811700" lon="35.4475500">
<ele>-181.440002</ele>
<time>2022-12-08T11:54:33.823Z</time>
</trkpt>
<trkpt lat="31.7811500" lon="35.4474700">
<ele>-180.529999</ele>
<time>2022-12-08T11:54:33.823Z</time>
</trkpt>
<trkpt lat="31.7812100" lon="35.4472200">
<ele>-182.419998</ele>
<time>2022-12-08T11:54:33.823Z</time>
</trkpt>
<trkpt lat="31.7812700" lon="35.4469600">
<ele>-181.670013</ele>
<time>2022-12-08T11:54:33.823Z</time>
</trkpt>
<trkpt lat="31.7812700" lon="35.4469600">
<ele>-181.670013</ele>
<time>2022-12-08T11:54:33.823Z</time>
</trkpt>
<trkpt lat="31.7812900" lon="35.4468600">
<ele>-180.639999</ele>
<time>2022-12-08T11:54:33.823Z</time>
</trkpt>
<trkpt lat="31.7813700" lon="35.4467000">
<ele>-178.529999</ele>
<time>2022-12-08T11:54:33.823Z</time>
</trkpt>
<trkpt lat="31.7814900" lon="35.4465200">
<ele>-176.230011</ele>
<time>2022-12-08T11:54:33.823Z</time>
</trkpt>
<trkpt lat="31.7815400" lon="35.4464100">
<ele>-174.389999</ele>
<time>2022-12-08T11:54:33.823Z</time>
</trkpt>
<trkpt lat="31.7815200" lon="35.4463100">
<ele>-174.269989</ele>
<time>2022-12-08T11:54:33.823Z</time>
</trkpt>
<trkpt lat="31.7816300" lon="35.4463600">
<ele>-174.179993</ele>
<time>2022-12-08T11:54:33.823Z</time>
</trkpt>
<trkpt lat="31.7817400" lon="35.4463700">
<ele>-177.779999</ele>
<time>2022-12-08T11:54:33.823Z</time>
</trkpt>
<trkpt lat="31.7817900" lon="35.4463300">
<ele>-180.360001</ele>
<time>2022-12-08T11:54:33.823Z</time>
</trkpt>
<trkpt lat="31.7820200" lon="35.4464800">
<ele>-194.380005</ele>
<time>2022-12-08T11:54:33.823Z</time>
</trkpt>
<trkpt lat="31.7821800" lon="35.4465300">
<ele>-203.389999</ele>
<time>2022-12-08T11:54:33.823Z</time>
</trkpt>
<trkpt lat="31.7822100" lon="35.4465200">
<ele>-204.850006</ele>
<time>2022-12-08T11:54:33.823Z</time>
</trkpt>
<trkpt lat="31.7822400" lon="35.4464700">
<ele>-205.479996</ele>
<time>2022-12-08T11:54:33.823Z</time>
</trkpt>
<trkpt lat="31.7822600" lon="35.4463900">
<ele>-205.409988</ele>
<time>2022-12-08T11:54:33.823Z</time>
</trkpt>
<trkpt lat="31.7822900" lon="35.4463200">
<ele>-205.160004</ele>
<time>2022-12-08T11:54:33.823Z</time>
</trkpt>
<trkpt lat="31.7823400" lon="35.4462900">
<ele>-205.900009</ele>
<time>2022-12-08T11:54:33.823Z</time>
</trkpt>
<trkpt lat="31.7824200" lon="35.4462500">
<ele>-207.630005</ele>
<time>2022-12-08T11:54:33.823Z</time>
</trkpt>
<trkpt lat="31.7825000" lon="35.4462600">
<ele>-209.389984</ele>
<time>2022-12-08T11:54:33.823Z</time>
</trkpt>
<trkpt lat="31.7826800" lon="35.4464200">
<ele>-209.260010</ele>
<time>2022-12-08T11:54:33.823Z</time>
</trkpt>
<trkpt lat="31.7827600" lon="35.4465600">
<ele>-209.330002</ele>
<time>2022-12-08T11:54:33.823Z</time>
</trkpt>
<trkpt lat="31.7827700" lon="35.4468000">
<ele>-209.479996</ele>
<time>2022-12-08T11:54:33.823Z</time>
</trkpt>
<trkpt lat="31.7828600" lon="35.4469500">
<ele>-211.319992</ele>
<time>2022-12-08T11:54:33.823Z</time>
</trkpt>
<trkpt lat="31.7829300" lon="35.4470000">
<ele>-213.589996</ele>
<time>2022-12-08T11:54:33.823Z</time>
</trkpt>
<trkpt lat="31.7830700" lon="35.4468700">
<ele>-213.360001</ele>
<time>2022-12-08T11:54:33.823Z</time>
</trkpt>
<trkpt lat="31.7831500" lon="35.4469500">
<ele>-216.830002</ele>
<time>2022-12-08T11:54:33.823Z</time>
</trkpt>
<trkpt lat="31.7832300" lon="35.4470300">
<ele>-220.410004</ele>
<time>2022-12-08T11:54:33.823Z</time>
</trkpt>
<trkpt lat="31.7833200" lon="35.4470600">
<ele>-222.939987</ele>
<time>2022-12-08T11:54:33.823Z</time>
</trkpt>
<trkpt lat="31.7833400" lon="35.4469200">
<ele>-221.869995</ele>
<time>2022-12-08T11:54:33.823Z</time>
</trkpt>
<trkpt lat="31.7833600" lon="35.4468200">
<ele>-221.350006</ele>
<time>2022-12-08T11:54:33.823Z</time>
</trkpt>
<trkpt lat="31.7833600" lon="35.4468200">
<ele>-221.350006</ele>
<time>2022-12-08T11:54:33.823Z</time>
</trkpt>
<trkpt lat="31.7833600" lon="35.4468000">
<ele>-221.169998</ele>
<time>2022-12-08T11:54:33.823Z</time>
</trkpt>
<trkpt lat="31.7833600" lon="35.4467200">
<ele>-220.440002</ele>
<time>2022-12-08T11:54:33.823Z</time>
</trkpt>
<trkpt lat="31.7833100" lon="35.4466100">
<ele>-217.679993</ele>
<time>2022-12-08T11:54:33.823Z</time>
</trkpt>
<trkpt lat="31.7834100" lon="35.4465000">
<ele>-220.289993</ele>
<time>2022-12-08T11:54:33.823Z</time>
</trkpt>
<trkpt lat="31.7835800" lon="35.4464400">
<ele>-226.879990</ele>
<time>2022-12-08T11:54:33.823Z</time>
</trkpt>
<trkpt lat="31.7835600" lon="35.4463500">
<ele>-225.880005</ele>
<time>2022-12-08T11:54:33.823Z</time>
</trkpt>
<trkpt lat="31.7836000" lon="35.4462400">
<ele>-228.010010</ele>
<time>2022-12-08T11:54:33.823Z</time>
</trkpt>
<trkpt lat="31.7837300" lon="35.4462100">
<ele>-233.020004</ele>
<time>2022-12-08T11:54:33.823Z</time>
</trkpt>
<trkpt lat="31.7838000" lon="35.4461400">
<ele>-236.700012</ele>
<time>2022-12-08T11:54:33.823Z</time>
</trkpt>
<trkpt lat="31.7838700" lon="35.4460400">
<ele>-241.410004</ele>
<time>2022-12-08T11:54:33.823Z</time>
</trkpt>
<trkpt lat="31.7839600" lon="35.4458300">
<ele>-246.039993</ele>
<time>2022-12-08T11:54:33.823Z</time>
</trkpt>
<trkpt lat="31.7841700" lon="35.4456300">
<ele>-248.779999</ele>
<time>2022-12-08T11:54:33.823Z</time>
</trkpt>
<trkpt lat="31.7842400" lon="35.4456000">
<ele>-246.149994</ele>
<time>2022-12-08T11:54:33.823Z</time>
</trkpt>
<trkpt lat="31.7843100" lon="35.4456300">
<ele>-242.600006</ele>
<time>2022-12-08T11:54:33.823Z</time>
</trkpt>
<trkpt lat="31.7843200" lon="35.4456500">
<ele>-241.830002</ele>
<time>2022-12-08T11:54:33.823Z</time>
</trkpt>
<trkpt lat="31.7843300" lon="35.4457400">
<ele>-239.899994</ele>
<time>2022-12-08T11:54:33.823Z</time>
</trkpt>
<trkpt lat="31.7843100" lon="35.4458300">
<ele>-239.350006</ele>
<time>2022-12-08T11:54:33.823Z</time>
</trkpt>
<trkpt lat="31.7841700" lon="35.4461400">
<ele>-235.889999</ele>
<time>2022-12-08T11:54:33.823Z</time>
</trkpt>
<trkpt lat="31.7841500" lon="35.4462200">
<ele>-233.779999</ele>
<time>2022-12-08T11:54:33.823Z</time>
</trkpt>
<trkpt lat="31.7841600" lon="35.4463300">
<ele>-230.059998</ele>
<time>2022-12-08T11:54:33.823Z</time>
</trkpt>
<trkpt lat="31.7841900" lon="35.4464600">
<ele>-226.690002</ele>
<time>2022-12-08T11:54:33.823Z</time>
</trkpt>
<trkpt lat="31.7842300" lon="35.4465600">
<ele>-224.770004</ele>
<time>2022-12-08T11:54:33.823Z</time>
</trkpt>
<trkpt lat="31.7842900" lon="35.4467500">
<ele>-223.809998</ele>
<time>2022-12-08T11:54:33.823Z</time>
</trkpt>
<trkpt lat="31.7842900" lon="35.4467500">
<ele>-223.809998</ele>
<time>2022-12-08T11:54:33.823Z</time>
</trkpt>
<trkpt lat="31.7844300" lon="35.4471500">
<ele>-225.429993</ele>
<time>2022-12-08T11:54:33.823Z</time>
</trkpt>
<trkpt lat="31.7844400" lon="35.4472500">
<ele>-226.139999</ele>
<time>2022-12-08T11:54:33.823Z</time>
</trkpt>
<trkpt lat="31.7844800" lon="35.4474400">
<ele>-225.300003</ele>
<time>2022-12-08T11:54:33.823Z</time>
</trkpt>
<trkpt lat="31.7845600" lon="35.4475900">
<ele>-223.270004</ele>
<time>2022-12-08T11:54:33.823Z</time>
</trkpt>
<trkpt lat="31.7846600" lon="35.4477000">
<ele>-220.679993</ele>
<time>2022-12-08T11:54:33.823Z</time>
</trkpt>
<trkpt lat="31.7848000" lon="35.4477800">
<ele>-220.410004</ele>
<time>2022-12-08T11:54:33.823Z</time>
</trkpt>
<trkpt lat="31.7849500" lon="35.4478000">
<ele>-223.109985</ele>
<time>2022-12-08T11:54:33.823Z</time>
</trkpt>
<trkpt lat="31.7850000" lon="35.4478300">
<ele>-224.000000</ele>
<time>2022-12-08T11:54:33.823Z</time>
</trkpt>
<trkpt lat="31.7850300" lon="35.4478900">
<ele>-223.349991</ele>
<time>2022-12-08T11:54:33.823Z</time>
</trkpt>
<trkpt lat="31.7850500" lon="35.4480600">
<ele>-222.899994</ele>
<time>2022-12-08T11:54:33.823Z</time>
</trkpt>
<trkpt lat="31.7850400" lon="35.4483100">
<ele>-221.820007</ele>
<time>2022-12-08T11:54:33.823Z</time>
</trkpt>
<trkpt lat="31.7850600" lon="35.4483900">
<ele>-220.119995</ele>
<time>2022-12-08T11:54:33.823Z</time>
</trkpt>
<trkpt lat="31.7851300" lon="35.4485200">
<ele>-216.059998</ele>
<time>2022-12-08T11:54:33.823Z</time>
</trkpt>
<trkpt lat="31.7853100" lon="35.4487200">
<ele>-209.790009</ele>
<time>2022-12-08T11:54:33.823Z</time>
</trkpt>
<trkpt lat="31.7855100" lon="35.4488900">
<ele>-209.020004</ele>
<time>2022-12-08T11:54:33.823Z</time>
</trkpt>
<trkpt lat="31.7854100" lon="35.4485400">
<ele>-208.299988</ele>
<time>2022-12-08T11:54:33.823Z</time>
</trkpt>
<trkpt lat="31.7852700" lon="35.4482700">
<ele>-215.139999</ele>
<time>2022-12-08T11:54:33.823Z</time>
</trkpt>
<trkpt lat="31.7853200" lon="35.4481200">
<ele>-215.630005</ele>
<time>2022-12-08T11:54:33.823Z</time>
</trkpt>
<trkpt lat="31.7854800" lon="35.4479700">
<ele>-211.899994</ele>
<time>2022-12-08T11:54:33.823Z</time>
</trkpt>
<trkpt lat="31.7854900" lon="35.4477100">
<ele>-212.709991</ele>
<time>2022-12-08T11:54:33.823Z</time>
</trkpt>
<trkpt lat="31.7856600" lon="35.4475200">
<ele>-204.720001</ele>
<time>2022-12-08T11:54:33.823Z</time>
</trkpt>
<trkpt lat="31.7857700" lon="35.4471700">
<ele>-196.750000</ele>
<time>2022-12-08T11:54:33.823Z</time>
</trkpt>
<trkpt lat="31.7857700" lon="35.4471700">
<ele>-196.750000</ele>
<time>2022-12-08T11:54:33.823Z</time>
</trkpt>
<trkpt lat="31.7857800" lon="35.4471500">
<ele>-196.110001</ele>
<time>2022-12-08T11:54:33.823Z</time>
</trkpt>
<trkpt lat="31.7858400" lon="35.4470800">
<ele>-192.639999</ele>
<time>2022-12-08T11:54:33.823Z</time>
</trkpt>
<trkpt lat="31.7859000" lon="35.4470700">
<ele>-189.419998</ele>
<time>2022-12-08T11:54:33.823Z</time>
</trkpt>
<trkpt lat="31.7859500" lon="35.4471400">
<ele>-186.529999</ele>
<time>2022-12-08T11:54:33.823Z</time>
</trkpt>
<trkpt lat="31.7859700" lon="35.4472800">
<ele>-185.439987</ele>
<time>2022-12-08T11:54:33.823Z</time>
</trkpt>
<trkpt lat="31.7860400" lon="35.4476000">
<ele>-184.819992</ele>
<time>2022-12-08T11:54:33.823Z</time>
</trkpt>
<trkpt lat="31.7862100" lon="35.4478600">
<ele>-184.839996</ele>
<time>2022-12-08T11:54:33.823Z</time>
</trkpt>
<trkpt lat="31.7866400" lon="35.4482500">
<ele>-190.550003</ele>
<time>2022-12-08T11:54:33.823Z</time>
</trkpt>
<trkpt lat="31.7867800" lon="35.4484700">
<ele>-193.449997</ele>
<time>2022-12-08T11:54:33.823Z</time>
</trkpt>
<trkpt lat="31.7868600" lon="35.4486100">
<ele>-195.279999</ele>
<time>2022-12-08T11:54:33.823Z</time>
</trkpt>
<trkpt lat="31.7868600" lon="35.4486100">
<ele>-195.279999</ele>
<time>2022-12-08T11:54:33.823Z</time>
</trkpt>
<trkpt lat="31.7868600" lon="35.4486100">
<ele>-195.279999</ele>
<time>2022-12-08T11:54:33.823Z</time>
</trkpt>
<trkpt lat="31.7869000" lon="35.4486700">
<ele>-196.509995</ele>
<time>2022-12-08T11:54:33.823Z</time>
</trkpt>
<trkpt lat="31.7869800" lon="35.4487500">
<ele>-198.309998</ele>
<time>2022-12-08T11:54:33.823Z</time>
</trkpt>
<trkpt lat="31.7872500" lon="35.4489800">
<ele>-206.190002</ele>
<time>2022-12-08T11:54:33.823Z</time>
</trkpt>
<trkpt lat="31.7877900" lon="35.4491400">
<ele>-201.419998</ele>
<time>2022-12-08T11:54:33.823Z</time>
</trkpt>
<trkpt lat="31.7880900" lon="35.4493000">
<ele>-201.279999</ele>
<time>2022-12-08T11:54:33.823Z</time>
</trkpt>
<trkpt lat="31.7889200" lon="35.4493300">
<ele>-206.560013</ele>
<time>2022-12-08T11:54:33.823Z</time>
</trkpt>
<trkpt lat="31.7891600" lon="35.4492400">
<ele>-201.669998</ele>
<time>2022-12-08T11:54:33.823Z</time>
</trkpt>
<trkpt lat="31.7893300" lon="35.4491700">
<ele>-201.250000</ele>
<time>2022-12-08T11:54:33.823Z</time>
</trkpt>
<trkpt lat="31.7893700" lon="35.4492200">
<ele>-202.620010</ele>
<time>2022-12-08T11:54:33.823Z</time>
</trkpt>
<trkpt lat="31.7892500" lon="35.4492700">
<ele>-202.830002</ele>
<time>2022-12-08T11:54:33.823Z</time>
</trkpt>
<trkpt lat="31.7891800" lon="35.4493800">
<ele>-204.700012</ele>
<time>2022-12-08T11:54:33.823Z</time>
</trkpt>
<trkpt lat="31.7896500" lon="35.4493300">
<ele>-209.229996</ele>
<time>2022-12-08T11:54:33.823Z</time>
</trkpt>
<trkpt lat="31.7900500" lon="35.4494200">
<ele>-215.299988</ele>
<time>2022-12-08T11:54:33.823Z</time>
</trkpt>
<trkpt lat="31.7899800" lon="35.4494700">
<ele>-215.139999</ele>
<time>2022-12-08T11:54:33.823Z</time>
</trkpt>
<trkpt lat="31.7898000" lon="35.4495400">
<ele>-214.839996</ele>
<time>2022-12-08T11:54:33.823Z</time>
</trkpt>
<trkpt lat="31.7897900" lon="35.4495900">
<ele>-215.460007</ele>
<time>2022-12-08T11:54:33.823Z</time>
</trkpt>
<trkpt lat="31.7900700" lon="35.4495600">
<ele>-217.360001</ele>
<time>2022-12-08T11:54:33.823Z</time>
</trkpt>
<trkpt lat="31.7902200" lon="35.4494600">
<ele>-218.379990</ele>
<time>2022-12-08T11:54:33.823Z</time>
</trkpt>
<trkpt lat="31.7904600" lon="35.4494100">
<ele>-220.390015</ele>
<time>2022-12-08T11:54:33.823Z</time>
</trkpt>
<trkpt lat="31.7906500" lon="35.4492900">
<ele>-219.559998</ele>
<time>2022-12-08T11:54:33.823Z</time>
</trkpt>
<trkpt lat="31.7911000" lon="35.4492000">
<ele>-221.020004</ele>
<time>2022-12-08T11:54:33.823Z</time>
</trkpt>
<trkpt lat="31.7920100" lon="35.4487700">
<ele>-220.260010</ele>
<time>2022-12-08T11:54:33.823Z</time>
</trkpt>
<trkpt lat="31.7926400" lon="35.4485100">
<ele>-220.660004</ele>
<time>2022-12-08T11:54:33.823Z</time>
</trkpt>
<trkpt lat="31.7933100" lon="35.4480600">
<ele>-221.029999</ele>
<time>2022-12-08T11:54:33.823Z</time>
</trkpt>
<trkpt lat="31.7933800" lon="35.4479600">
<ele>-218.599991</ele>
<time>2022-12-08T11:54:33.823Z</time>
</trkpt>
<trkpt lat="31.7933800" lon="35.4479600">
<ele>-218.599991</ele>
<time>2022-12-08T11:54:33.823Z</time>
</trkpt>
<trkpt lat="31.7933800" lon="35.4479600">
<ele>-218.599991</ele>
<time>2022-12-08T11:54:33.823Z</time>
</trkpt>
<trkpt lat="31.7935000" lon="35.4478000">
<ele>-215.619995</ele>
<time>2022-12-08T11:54:33.823Z</time>
</trkpt>
<trkpt lat="31.7938700" lon="35.4474600">
<ele>-214.580002</ele>
<time>2022-12-08T11:54:33.823Z</time>
</trkpt>
<trkpt lat="31.7939000" lon="35.4472800">
<ele>-214.379990</ele>
<time>2022-12-08T11:54:33.823Z</time>
</trkpt>
<trkpt lat="31.7941500" lon="35.4471600">
<ele>-217.720001</ele>
<time>2022-12-08T11:54:33.823Z</time>
</trkpt>
<trkpt lat="31.7941800" lon="35.4469400">
<ele>-218.189987</ele>
<time>2022-12-08T11:54:33.823Z</time>
</trkpt>
<trkpt lat="31.7954200" lon="35.4463100">
<ele>-209.889999</ele>
<time>2022-12-08T11:54:33.823Z</time>
</trkpt>
<trkpt lat="31.7962500" lon="35.4462700">
<ele>-211.429993</ele>
<time>2022-12-08T11:54:33.823Z</time>
</trkpt>
<trkpt lat="31.7962500" lon="35.4462700">
<ele>-211.429993</ele>
<time>2022-12-08T11:54:33.823Z</time>
</trkpt>
<trkpt lat="31.7962500" lon="35.4462700">
<ele>-211.429993</ele>
<time>2022-12-08T11:54:33.823Z</time>
</trkpt>
<trkpt lat="31.7964300" lon="35.4462600">
<ele>-212.620010</ele>
<time>2022-12-08T11:54:33.823Z</time>
</trkpt>
<trkpt lat="31.7970800" lon="35.4460400">
<ele>-210.950012</ele>
<time>2022-12-08T11:54:33.823Z</time>
</trkpt>
<trkpt lat="31.7975300" lon="35.4458900">
<ele>-210.699997</ele>
<time>2022-12-08T11:54:33.823Z</time>
</trkpt>
<trkpt lat="31.7976800" lon="35.4458900">
<ele>-211.129990</ele>
<time>2022-12-08T11:54:33.823Z</time>
</trkpt>
<trkpt lat="31.7978500" lon="35.4458500">
<ele>-210.840012</ele>
<time>2022-12-08T11:54:33.823Z</time>
</trkpt>
<trkpt lat="31.7979200" lon="35.4458800">
<ele>-210.739990</ele>
<time>2022-12-08T11:54:33.823Z</time>
</trkpt>
<trkpt lat="31.7978700" lon="35.4459500">
<ele>-211.369995</ele>
<time>2022-12-08T11:54:33.823Z</time>
</trkpt>
<trkpt lat="31.7977900" lon="35.4459600">
<ele>-211.850006</ele>
<time>2022-12-08T11:54:33.823Z</time>
</trkpt>
<trkpt lat="31.7977100" lon="35.4459900">
<ele>-212.020004</ele>
<time>2022-12-08T11:54:33.823Z</time>
</trkpt>
<trkpt lat="31.7976500" lon="35.4460700">
<ele>-212.639999</ele>
<time>2022-12-08T11:54:33.823Z</time>
</trkpt>
<trkpt lat="31.7977500" lon="35.4460500">
<ele>-212.539993</ele>
<time>2022-12-08T11:54:33.823Z</time>
</trkpt>
<trkpt lat="31.7977200" lon="35.4461200">
<ele>-213.099991</ele>
<time>2022-12-08T11:54:33.823Z</time>
</trkpt>
<trkpt lat="31.7976300" lon="35.4461600">
<ele>-213.619995</ele>
<time>2022-12-08T11:54:33.823Z</time>
</trkpt>
<trkpt lat="31.7973600" lon="35.4462000">
<ele>-213.960007</ele>
<time>2022-12-08T11:54:33.823Z</time>
</trkpt>
<trkpt lat="31.7970100" lon="35.4465200">
<ele>-217.090012</ele>
<time>2022-12-08T11:54:33.823Z</time>
</trkpt>
<trkpt lat="31.7967000" lon="35.4466100">
<ele>-216.750000</ele>
<time>2022-12-08T11:54:33.823Z</time>
</trkpt>
<trkpt lat="31.7962600" lon="35.4467300">
<ele>-218.330002</ele>
<time>2022-12-08T11:54:33.823Z</time>
</trkpt>
<trkpt lat="31.7960300" lon="35.4467100">
<ele>-216.000000</ele>
<time>2022-12-08T11:54:33.823Z</time>
</trkpt>
<trkpt lat="31.7959900" lon="35.4467700">
<ele>-218.139999</ele>
<time>2022-12-08T11:54:33.823Z</time>
</trkpt>
<trkpt lat="31.7962400" lon="35.4468500">
<ele>-223.360001</ele>
<time>2022-12-08T11:54:33.823Z</time>
</trkpt>
<trkpt lat="31.7964100" lon="35.4469800">
<ele>-228.070007</ele>
<time>2022-12-08T11:54:33.823Z</time>
</trkpt>
<trkpt lat="31.7965100" lon="35.4469100">
<ele>-227.069992</ele>
<time>2022-12-08T11:54:33.823Z</time>
</trkpt>
<trkpt lat="31.7968000" lon="35.4468400">
<ele>-225.699997</ele>
<time>2022-12-08T11:54:33.823Z</time>
</trkpt>
<trkpt lat="31.7968600" lon="35.4469100">
<ele>-228.500000</ele>
<time>2022-12-08T11:54:33.823Z</time>
</trkpt>
<trkpt lat="31.7969600" lon="35.4469100">
<ele>-228.470001</ele>
<time>2022-12-08T11:54:33.823Z</time>
</trkpt>
<trkpt lat="31.7969600" lon="35.4469900">
<ele>-229.590012</ele>
<time>2022-12-08T11:54:33.823Z</time>
</trkpt>
<trkpt lat="31.7970200" lon="35.4470400">
<ele>-228.200012</ele>
<time>2022-12-08T11:54:33.823Z</time>
</trkpt>
<trkpt lat="31.7972400" lon="35.4469700">
<ele>-222.350006</ele>
<time>2022-12-08T11:54:33.823Z</time>
</trkpt>
<trkpt lat="31.7972400" lon="35.4469700">
<ele>-222.350006</ele>
<time>2022-12-08T11:54:33.823Z</time>
</trkpt>
<trkpt lat="31.7973000" lon="35.4469500">
<ele>-222.060013</ele>
<time>2022-12-08T11:54:33.823Z</time>
</trkpt>
<trkpt lat="31.7973900" lon="35.4470400">
<ele>-222.750000</ele>
<time>2022-12-08T11:54:33.823Z</time>
</trkpt>
<trkpt lat="31.7975600" lon="35.4473200">
<ele>-224.410004</ele>
<time>2022-12-08T11:54:33.823Z</time>
</trkpt>
<trkpt lat="31.7975700" lon="35.4475900">
<ele>-228.780014</ele>
<time>2022-12-08T11:54:33.823Z</time>
</trkpt>
<trkpt lat="31.7974000" lon="35.4478900">
<ele>-233.360001</ele>
<time>2022-12-08T11:54:33.823Z</time>
</trkpt>
<trkpt lat="31.7975200" lon="35.4482500">
<ele>-235.480011</ele>
<time>2022-12-08T11:54:33.823Z</time>
</trkpt>
<trkpt lat="31.7974100" lon="35.4483900">
<ele>-235.770004</ele>
<time>2022-12-08T11:54:33.823Z</time>
</trkpt>
<trkpt lat="31.7976100" lon="35.4489300">
<ele>-236.709991</ele>
<time>2022-12-08T11:54:33.823Z</time>
</trkpt>
<trkpt lat="31.7973600" lon="35.4494000">
<ele>-238.750000</ele>
<time>2022-12-08T11:54:33.823Z</time>
</trkpt>
<trkpt lat="31.7974700" lon="35.4497100">
<ele>-238.279999</ele>
<time>2022-12-08T11:54:33.823Z</time>
</trkpt>
<trkpt lat="31.7981000" lon="35.4501500">
<ele>-243.019989</ele>
<time>2022-12-08T11:54:33.823Z</time>
</trkpt>
<trkpt lat="31.7984900" lon="35.4507600">
<ele>-243.949997</ele>
<time>2022-12-08T11:54:33.823Z</time>
</trkpt>
<trkpt lat="31.7986100" lon="35.4510700">
<ele>-242.849991</ele>
<time>2022-12-08T11:54:33.823Z</time>
</trkpt>
<trkpt lat="31.7986600" lon="35.4513100">
<ele>-245.190002</ele>
<time>2022-12-08T11:54:33.823Z</time>
</trkpt>
<trkpt lat="31.7987400" lon="35.4515300">
<ele>-247.949997</ele>
<time>2022-12-08T11:54:33.823Z</time>
</trkpt>
<trkpt lat="31.7987800" lon="35.4516100">
<ele>-248.680008</ele>
<time>2022-12-08T11:54:33.823Z</time>
</trkpt>
<trkpt lat="31.7988700" lon="35.4516900">
<ele>-249.250000</ele>
<time>2022-12-08T11:54:33.823Z</time>
</trkpt>
<trkpt lat="31.7991400" lon="35.4517900">
<ele>-248.730011</ele>
<time>2022-12-08T11:54:33.823Z</time>
</trkpt>
<trkpt lat="31.7992700" lon="35.4518500">
<ele>-247.839996</ele>
<time>2022-12-08T11:54:33.823Z</time>
</trkpt>
<trkpt lat="31.7993200" lon="35.4518800">
<ele>-247.550003</ele>
<time>2022-12-08T11:54:33.823Z</time>
</trkpt>
<trkpt lat="31.7998600" lon="35.4520900">
<ele>-249.500015</ele>
<time>2022-12-08T11:54:33.823Z</time>
</trkpt>
<trkpt lat="31.7999000" lon="35.4522300">
<ele>-249.370010</ele>
<time>2022-12-08T11:54:33.823Z</time>
</trkpt>
<trkpt lat="31.7999600" lon="35.4524600">
<ele>-249.269989</ele>
<time>2022-12-08T11:54:33.823Z</time>
</trkpt>
<trkpt lat="31.8001500" lon="35.4526900">
<ele>-246.010010</ele>
<time>2022-12-08T11:54:33.823Z</time>
</trkpt>
<trkpt lat="31.8002700" lon="35.4527600">
<ele>-244.210007</ele>
<time>2022-12-08T11:54:33.823Z</time>
</trkpt>
<trkpt lat="31.8004000" lon="35.4526400">
<ele>-245.210007</ele>
<time>2022-12-08T11:54:33.823Z</time>
</trkpt>
<trkpt lat="31.8003900" lon="35.4526300">
<ele>-245.250000</ele>
<time>2022-12-08T11:54:33.823Z</time>
</trkpt>
<trkpt lat="31.8003900" lon="35.4526300">
<ele>-245.250000</ele>
<time>2022-12-08T11:54:33.823Z</time>
</trkpt>
<trkpt lat="31.8004600" lon="35.4526300">
<ele>-245.370010</ele>
<time>2022-12-08T11:54:33.823Z</time>
</trkpt>
<trkpt lat="31.8006800" lon="35.4528000">
<ele>-244.519989</ele>
<time>2022-12-08T11:54:33.823Z</time>
</trkpt>
<trkpt lat="31.8008600" lon="35.4530900">
<ele>-242.979996</ele>
<time>2022-12-08T11:54:33.823Z</time>
</trkpt>
<trkpt lat="31.8008900" lon="35.4534400">
<ele>-242.869995</ele>
<time>2022-12-08T11:54:33.823Z</time>
</trkpt>
<trkpt lat="31.8010100" lon="35.4534800">
<ele>-244.139999</ele>
<time>2022-12-08T11:54:33.823Z</time>
</trkpt>
<trkpt lat="31.8010200" lon="35.4535400">
<ele>-244.589996</ele>
<time>2022-12-08T11:54:33.823Z</time>
</trkpt>
</trkseg>
</trk>
</gpx>
